Wetterdaten: Freitag, 07.03.2014
Datum Zeit Temp. Aussen +5cm Feuchte Auss Luftdruck Regen Sonnenschein Regendauer UV Solar Windben
07.03.2014 00:00 5,1 C 2,8 C 85 % 1026,4 hPa 0,0 l/m 0 min 0 min 0,0 UV-I 0 W/m 0,0 km/h (0 Bft)
07.03.2014 00:02 5,1 C 2,8 C 85 % 1026,4 hPa 0,0 l/m 0 min 0 min 0,0 UV-I 0 W/m 2,6 km/h (1 Bft)
07.03.2014 00:06 5,1 C 2,8 C 85 % 1026,4 hPa 0,0 l/m 0 min 0 min 0,0 UV-I 0 W/m 5,1 km/h (1 Bft)
07.03.2014 00:08 5,1 C 2,8 C 85 % 1026,4 hPa 0,0 l/m 0 min 0 min 0,0 UV-I 0 W/m 5,1 km/h (1 Bft)
07.03.2014 00:10 5,1 C 2,8 C 85 % 1026,4 hPa 0,0 l/m 0 min 0 min 0,0 UV-I 0 W/m 2,6 km/h (1 Bft)
07.03.2014 00:12 5,0 C 2,8 C 85 % 1026,3 hPa 0,0 l/m 0 min 0 min 0,0 UV-I 0 W/m 0,0 km/h (0 Bft)
07.03.2014 00:14 5,0 C 2,8 C 85 % 1026,4 hPa 0,0 l/m 0 min 0 min 0,0 UV-I 0 W/m 2,6 km/h (1 Bft)
07.03.2014 00:16 5,1 C 2,8 C 85 % 1026,4 hPa 0,0 l/m 0 min 0 min 0,0 UV-I 0 W/m 0,0 km/h (0 Bft)
07.03.2014 00:18 5,1 C 2,8 C 85 % 1026,3 hPa 0,0 l/m 0 min 0 min 0,0 UV-I 0 W/m 0,0 km/h (0 Bft)
07.03.2014 00:20 5,0 C 2,8 C 85 % 1026,4 hPa 0,0 l/m 0 min 0 min 0,0 UV-I 0 W/m 7,7 km/h (2 Bft)
07.03.2014 00:22 5,0 C 2,8 C 85 % 1026,4 hPa 0,0 l/m 0 min 0 min 0,0 UV-I 0 W/m 0,0 km/h (0 Bft)
07.03.2014 00:24 5,0 C 2,8 C 85 % 1026,3 hPa 0,0 l/m 0 min 0 min 0,0 UV-I 0 W/m 0,0 km/h (0 Bft)
07.03.2014 00:26 5,0 C 2,8 C 85 % 1026,3 hPa 0,0 l/m 0 min 0 min 0,0 UV-I 0 W/m 0,0 km/h (0 Bft)
07.03.2014 00:28 4,9 C 2,8 C 85 % 1026,3 hPa 0,0 l/m 0 min 0 min 0,0 UV-I 0 W/m 0,0 km/h (0 Bft)
07.03.2014 00:30 4,9 C 2,8 C 85 % 1026,3 hPa 0,0 l/m 0 min 0 min 0,0 UV-I 0 W/m 0,0 km/h (0 Bft)
07.03.2014 00:32 4,9 C 2,8 C 85 % 1026,2 hPa 0,0 l/m 0 min 0 min 0,0 UV-I 0 W/m 0,0 km/h (0 Bft)
07.03.2014 00:34 4,9 C 2,8 C 85 % 1026,3 hPa 0,0 l/m 0 min 0 min 0,0 UV-I 0 W/m 7,7 km/h (2 Bft)
07.03.2014 00:36 4,9 C 2,8 C 85 % 1026,2 hPa 0,0 l/m 0 min 0 min 0,0 UV-I 0 W/m 0,0 km/h (0 Bft)
07.03.2014 00:38 4,8 C 2,8 C 85 % 1026,2 hPa 0,0 l/m 0 min 0 min 0,0 UV-I 0 W/m 0,0 km/h (0 Bft)
07.03.2014 00:40 4,8 C 2,8 C 85 % 1026,2 hPa 0,0 l/m 0 min 0 min 0,0 UV-I 0 W/m 0,0 km/h (0 Bft)
07.03.2014 00:42 4,8 C 2,8 C 85 % 1026,3 hPa 0,0 l/m 0 min 0 min 0,0 UV-I 0 W/m 10,3 km/h (2 Bft)
07.03.2014 00:44 4,8 C 2,8 C 85 % 1026,2 hPa 0,0 l/m 0 min 0 min 0,0 UV-I 0 W/m 0,0 km/h (0 Bft)
07.03.2014 00:46 4,8 C 2,8 C 84 % 1026,2 hPa 0,0 l/m 0 min 0 min 0,0 UV-I 0 W/m 2,6 km/h (1 Bft)
07.03.2014 00:48 4,9 C 2,8 C 84 % 1026,2 hPa 0,0 l/m 0 min 0 min 0,0 UV-I 0 W/m 2,6 km/h (1 Bft)
07.03.2014 00:50 4,9 C 2,8 C 84 % 1026,2 hPa 0,0 l/m 0 min 0 min 0,0 UV-I 0 W/m 5,1 km/h (1 Bft)
07.03.2014 00:52 4,9 C 2,8 C 84 % 1026,1 hPa 0,0 l/m 0 min 0 min 0,0 UV-I 0 W/m 7,7 km/h (2 Bft)
07.03.2014 00:54 4,9 C 2,8 C 84 % 1026,1 hPa 0,0 l/m 0 min 0 min 0,0 UV-I 0 W/m 7,7 km/h (2 Bft)
07.03.2014 00:56 4,9 C 2,8 C 84 % 1026,1 hPa 0,0 l/m 0 min 0 min 0,0 UV-I 0 W/m 7,7 km/h (2 Bft)
07.03.2014 00:58 4,9 C 2,8 C 84 % 1026,1 hPa 0,0 l/m 0 min 0 min 0,0 UV-I 0 W/m 0,0 km/h (0 Bft)
07.03.2014 01:00 4,8 C 2,8 C 84 % 1026,1 hPa 0,0 l/m 0 min 0 min 0,0 UV-I 0 W/m 2,6 km/h (1 Bft)
07.03.2014 01:02 4,8 C 2,8 C 84 % 1026,1 hPa 0,0 l/m 0 min 0 min 0,0 UV-I 0 W/m 10,3 km/h (2 Bft)
07.03.2014 01:04 4,8 C 2,8 C 84 % 1026,1 hPa 0,0 l/m 0 min 0 min 0,0 UV-I 0 W/m 7,7 km/h (2 Bft)
07.03.2014 01:06 4,8 C 2,8 C 84 % 1026,1 hPa 0,0 l/m 0 min 0 min 0,0 UV-I 0 W/m 2,6 km/h (1 Bft)
07.03.2014 01:08 4,8 C 2,8 C 84 % 1026,1 hPa 0,0 l/m 0 min 0 min 0,0 UV-I 0 W/m 7,7 km/h (2 Bft)
07.03.2014 01:10 4,7 C 2,8 C 84 % 1026,1 hPa 0,0 l/m 0 min 0 min 0,0 UV-I 0 W/m 7,7 km/h (2 Bft)
07.03.2014 01:12 4,7 C 2,8 C 84 % 1026,1 hPa 0,0 l/m 0 min 0 min 0,0 UV-I 0 W/m 7,7 km/h (2 Bft)
07.03.2014 01:14 4,7 C 2,8 C 84 % 1026,1 hPa 0,0 l/m 0 min 0 min 0,0 UV-I 0 W/m 5,1 km/h (1 Bft)
07.03.2014 01:16 4,7 C 2,8 C 84 % 1026,1 hPa 0,0 l/m 0 min 0 min 0,0 UV-I 0 W/m 7,7 km/h (2 Bft)
07.03.2014 01:18 4,7 C 2,8 C 84 % 1026,1 hPa 0,0 l/m 0 min 0 min 0,0 UV-I 0 W/m 5,1 km/h (1 Bft)
07.03.2014 01:20 4,7 C 2,8 C 84 % 1026,1 hPa 0,0 l/m 0 min 0 min 0,0 UV-I 0 W/m 0,0 km/h (0 Bft)
07.03.2014 01:22 4,7 C 2,8 C 84 % 1026,1 hPa 0,0 l/m 0 min 0 min 0,0 UV-I 0 W/m 0,0 km/h (0 Bft)
07.03.2014 01:24 4,6 C 2,8 C 85 % 1026,1 hPa 0,0 l/m 0 min 0 min 0,0 UV-I 0 W/m 0,0 km/h (0 Bft)
07.03.2014 01:26 4,6 C 2,8 C 84 % 1026,1 hPa 0,0 l/m 0 min 0 min 0,0 UV-I 0 W/m 0,0 km/h (0 Bft)
07.03.2014 01:28 4,5 C 2,2 C 85 % 1026,1 hPa 0,0 l/m 0 min 0 min 0,0 UV-I 0 W/m 2,6 km/h (1 Bft)
07.03.2014 01:30 4,5 C 2,8 C 85 % 1026,0 hPa 0,0 l/m 0 min 0 min 0,0 UV-I 0 W/m 2,6 km/h (1 Bft)
07.03.2014 01:32 4,4 C 2,8 C 85 % 1026,1 hPa 0,0 l/m 0 min 0 min 0,0 UV-I 0 W/m 5,1 km/h (1 Bft)
07.03.2014 01:34 4,4 C 2,8 C 85 % 1026,0 hPa 0,0 l/m 0 min 0 min 0,0 UV-I 0 W/m 7,7 km/h (2 Bft)
07.03.2014 01:36 4,4 C 2,2 C 85 % 1026,1 hPa 0,0 l/m 0 min 0 min 0,0 UV-I 0 W/m 5,1 km/h (1 Bft)
07.03.2014 01:38 4,4 C 2,2 C 85 % 1026,1 hPa 0,0 l/m 0 min 0 min 0,0 UV-I 0 W/m 5,1 km/h (1 Bft)
07.03.2014 01:40 4,3 C 2,2 C 85 % 1026,1 hPa 0,0 l/m 0 min 0 min 0,0 UV-I 0 W/m 7,7 km/h (2 Bft)
07.03.2014 01:42 4,3 C 2,2 C 86 % 1026,1 hPa 0,0 l/m 0 min 0 min 0,0 UV-I 0 W/m 7,7 km/h (2 Bft)
07.03.2014 01:44 4,3 C 2,2 C 86 % 1026,1 hPa 0,0 l/m 0 min 0 min 0,0 UV-I 0 W/m 5,1 km/h (1 Bft)
07.03.2014 01:46 4,2 C 2,2 C 86 % 1026,1 hPa 0,0 l/m 0 min 0 min 0,0 UV-I 0 W/m 2,6 km/h (1 Bft)
07.03.2014 01:48 4,2 C 2,2 C 86 % 1026,2 hPa 0,0 l/m 0 min 0 min 0,0 UV-I 0 W/m 5,1 km/h (1 Bft)
07.03.2014 01:50 4,2 C 2,2 C 86 % 1026,2 hPa 0,0 l/m 0 min 0 min 0,0 UV-I 0 W/m 5,1 km/h (1 Bft)
07.03.2014 01:52 4,2 C 2,2 C 86 % 1026,1 hPa 0,0 l/m 0 min 0 min 0,0 UV-I 0 W/m 10,3 km/h (2 Bft)
07.03.2014 01:54 4,2 C 2,2 C 86 % 1026,2 hPa 0,0 l/m 0 min 0 min 0,0 UV-I 0 W/m 10,3 km/h (2 Bft)
07.03.2014 01:56 4,1 C 2,2 C 86 % 1026,2 hPa 0,0 l/m 0 min 0 min 0,0 UV-I 0 W/m 7,7 km/h (2 Bft)
07.03.2014 01:58 4,1 C 2,2 C 87 % 1026,2 hPa 0,0 l/m 0 min 0 min 0,0 UV-I 0 W/m 7,7 km/h (2 Bft)
07.03.2014 02:00 4,1 C 2,2 C 87 % 1026,2 hPa 0,0 l/m 0 min 0 min 0,0 UV-I 0 W/m 7,7 km/h (2 Bft)
07.03.2014 02:02 4,1 C 2,2 C 87 % 1026,2 hPa 0,0 l/m 0 min 0 min 0,0 UV-I 0 W/m 5,1 km/h (1 Bft)
07.03.2014 02:04 4,1 C 2,2 C 87 % 1026,2 hPa 0,0 l/m 0 min 0 min 0,0 UV-I 0 W/m 2,6 km/h (1 Bft)
07.03.2014 02:06 4,1 C 2,2 C 87 % 1026,2 hPa 0,0 l/m 0 min 0 min 0,0 UV-I 0 W/m 7,7 km/h (2 Bft)
07.03.2014 02:08 4,1 C 2,2 C 87 % 1026,2 hPa 0,0 l/m 0 min 0 min 0,0 UV-I 0 W/m 7,7 km/h (2 Bft)
07.03.2014 02:10 4,0 C 2,2 C 87 % 1026,2 hPa 0,0 l/m 0 min 0 min 0,0 UV-I 0 W/m 2,6 km/h (1 Bft)
07.03.2014 02:12 4,0 C 2,2 C 87 % 1026,2 hPa 0,0 l/m 0 min 0 min 0,0 UV-I 0 W/m 5,1 km/h (1 Bft)
07.03.2014 02:14 3,9 C 2,2 C 87 % 1026,2 hPa 0,0 l/m 0 min 0 min 0,0 UV-I 0 W/m 0,0 km/h (0 Bft)
07.03.2014 02:16 3,9 C 2,2 C 87 % 1026,2 hPa 0,0 l/m 0 min 0 min 0,0 UV-I 0 W/m 0,0 km/h (0 Bft)
07.03.2014 02:18 3,9 C 2,2 C 87 % 1026,2 hPa 0,0 l/m 0 min 0 min 0,0 UV-I 0 W/m 5,1 km/h (1 Bft)
07.03.2014 02:20 3,9 C 2,2 C 87 % 1026,1 hPa 0,0 l/m 0 min 0 min 0,0 UV-I 0 W/m 2,6 km/h (1 Bft)
07.03.2014 02:22 3,9 C 2,2 C 87 % 1026,1 hPa 0,0 l/m 0 min 0 min 0,0 UV-I 0 W/m 0,0 km/h (0 Bft)
07.03.2014 02:24 3,8 C 2,2 C 87 % 1026,1 hPa 0,0 l/m 0 min 0 min 0,0 UV-I 0 W/m 5,1 km/h (1 Bft)
07.03.2014 02:26 3,8 C 2,2 C 87 % 1026,2 hPa 0,0 l/m 0 min 0 min 0,0 UV-I 0 W/m 2,6 km/h (1 Bft)
07.03.2014 02:28 3,8 C 2,2 C 88 % 1026,1 hPa 0,0 l/m 0 min 0 min 0,0 UV-I 0 W/m 0,0 km/h (0 Bft)
07.03.2014 02:30 3,8 C 2,2 C 88 % 1026,1 hPa 0,0 l/m 0 min 0 min 0,0 UV-I 0 W/m 0,0 km/h (0 Bft)
07.03.2014 02:32 3,7 C 2,2 C 88 % 1026,1 hPa 0,0 l/m 0 min 0 min 0,0 UV-I 0 W/m 7,7 km/h (2 Bft)
07.03.2014 02:34 3,7 C 2,2 C 88 % 1026,1 hPa 0,0 l/m 0 min 0 min 0,0 UV-I 0 W/m 2,6 km/h (1 Bft)
07.03.2014 02:36 3,7 C 1,7 C 88 % 1026,1 hPa 0,0 l/m 0 min 0 min 0,0 UV-I 0 W/m 0,0 km/h (0 Bft)
07.03.2014 02:38 3,7 C 2,2 C 88 % 1026,1 hPa 0,0 l/m 0 min 0 min 0,0 UV-I 0 W/m 5,1 km/h (1 Bft)
07.03.2014 02:40 3,7 C 1,7 C 88 % 1026,1 hPa 0,0 l/m 0 min 0 min 0,0 UV-I 0 W/m 0,0 km/h (0 Bft)
07.03.2014 02:42 3,7 C 1,7 C 88 % 1026,1 hPa 0,0 l/m 0 min 0 min 0,0 UV-I 0 W/m 7,7 km/h (2 Bft)
07.03.2014 02:44 3,6 C 1,7 C 88 % 1026,0 hPa 0,0 l/m 0 min 0 min 0,0 UV-I 0 W/m 0,0 km/h (0 Bft)
07.03.2014 02:46 3,6 C 1,7 C 88 % 1026,0 hPa 0,0 l/m 0 min 0 min 0,0 UV-I 0 W/m 0,0 km/h (0 Bft)
07.03.2014 02:48 3,6 C 1,7 C 88 % 1026,0 hPa 0,0 l/m 0 min 0 min 0,0 UV-I 0 W/m 2,6 km/h (1 Bft)
07.03.2014 02:50 3,6 C 1,7 C 88 % 1026,0 hPa 0,0 l/m 0 min 0 min 0,0 UV-I 0 W/m 0,0 km/h (0 Bft)
07.03.2014 02:52 3,5 C 1,7 C 88 % 1026,0 hPa 0,0 l/m 0 min 0 min 0,0 UV-I 0 W/m 2,6 km/h (1 Bft)
07.03.2014 02:54 3,5 C 1,7 C 88 % 1026,1 hPa 0,0 l/m 0 min 0 min 0,0 UV-I 0 W/m 7,7 km/h (2 Bft)
07.03.2014 02:56 3,5 C 1,7 C 88 % 1026,0 hPa 0,0 l/m 0 min 0 min 0,0 UV-I 0 W/m 10,3 km/h (2 Bft)
07.03.2014 02:58 3,5 C 1,7 C 88 % 1026,0 hPa 0,0 l/m 0 min 0 min 0,0 UV-I 0 W/m 7,7 km/h (2 Bft)
07.03.2014 03:00 3,5 C 1,7 C 88 % 1026,0 hPa 0,0 l/m 0 min 0 min 0,0 UV-I 0 W/m 5,1 km/h (1 Bft)
07.03.2014 03:02 3,5 C 1,7 C 88 % 1025,9 hPa 0,0 l/m 0 min 0 min 0,0 UV-I 0 W/m 7,7 km/h (2 Bft)
07.03.2014 03:04 3,5 C 1,7 C 88 % 1025,9 hPa 0,0 l/m 0 min 0 min 0,0 UV-I 0 W/m 0,0 km/h (0 Bft)
07.03.2014 03:06 3,4 C 1,7 C 88 % 1025,8 hPa 0,0 l/m 0 min 0 min 0,0 UV-I 0 W/m 5,1 km/h (1 Bft)
07.03.2014 03:08 3,4 C 1,7 C 88 % 1025,7 hPa 0,0 l/m 0 min 0 min 0,0 UV-I 0 W/m 10,3 km/h (2 Bft)
07.03.2014 03:10 3,4 C 1,7 C 88 % 1025,8 hPa 0,0 l/m 0 min 0 min 0,0 UV-I 0 W/m 0,0 km/h (0 Bft)
07.03.2014 03:12 3,4 C 1,7 C 88 % 1025,8 hPa 0,0 l/m 0 min 0 min 0,0 UV-I 0 W/m 2,6 km/h (1 Bft)
07.03.2014 03:14 3,4 C 1,7 C 89 % 1025,8 hPa 0,0 l/m 0 min 0 min 0,0 UV-I 0 W/m 7,7 km/h (2 Bft)
07.03.2014 03:16 3,3 C 1,7 C 88 % 1025,8 hPa 0,0 l/m 0 min 0 min 0,0 UV-I 0 W/m 0,0 km/h (0 Bft)
07.03.2014 03:18 3,3 C 1,7 C 88 % 1025,7 hPa 0,0 l/m 0 min 0 min 0,0 UV-I 0 W/m 5,1 km/h (1 Bft)
07.03.2014 03:20 3,3 C 1,7 C 89 % 1025,8 hPa 0,0 l/m 0 min 0 min 0,0 UV-I 0 W/m 0,0 km/h (0 Bft)
07.03.2014 03:22 3,3 C 1,7 C 89 % 1025,8 hPa 0,0 l/m 0 min 0 min 0,0 UV-I 0 W/m 0,0 km/h (0 Bft)
07.03.2014 03:24 3,3 C 1,7 C 89 % 1025,8 hPa 0,0 l/m 0 min 0 min 0,0 UV-I 0 W/m 0,0 km/h (0 Bft)
07.03.2014 03:26 3,2 C 1,7 C 89 % 1025,8 hPa 0,0 l/m 0 min 0 min 0,0 UV-I 0 W/m 0,0 km/h (0 Bft)
07.03.2014 03:28 3,2 C 1,7 C 89 % 1025,8 hPa 0,0 l/m 0 min 0 min 0,0 UV-I 0 W/m 2,6 km/h (1 Bft)
07.03.2014 03:30 3,2 C 1,7 C 89 % 1025,8 hPa 0,0 l/m 0 min 0 min 0,0 UV-I 0 W/m 0,0 km/h (0 Bft)
07.03.2014 03:32 3,2 C 1,1 C 89 % 1025,7 hPa 0,0 l/m 0 min 0 min 0,0 UV-I 0 W/m 0,0 km/h (0 Bft)
07.03.2014 03:34 3,2 C 1,7 C 89 % 1025,8 hPa 0,0 l/m 0 min 0 min 0,0 UV-I 0 W/m 0,0 km/h (0 Bft)
07.03.2014 03:36 3,2 C 1,1 C 89 % 1025,8 hPa 0,0 l/m 0 min 0 min 0,0 UV-I 0 W/m 0,0 km/h (0 Bft)
07.03.2014 03:38 3,1 C 1,1 C 89 % 1025,7 hPa 0,0 l/m 0 min 0 min 0,0 UV-I 0 W/m 0,0 km/h (0 Bft)
07.03.2014 03:40 3,1 C 1,1 C 89 % 1025,7 hPa 0,0 l/m 0 min 0 min 0,0 UV-I 0 W/m 0,0 km/h (0 Bft)
07.03.2014 03:42 3,1 C 1,1 C 89 % 1025,7 hPa 0,0 l/m 0 min 0 min 0,0 UV-I 0 W/m 0,0 km/h (0 Bft)
07.03.2014 03:44 3,1 C 1,1 C 89 % 1025,7 hPa 0,0 l/m 0 min 0 min 0,0 UV-I 0 W/m 2,6 km/h (1 Bft)
07.03.2014 03:46 3,0 C 1,1 C 89 % 1025,7 hPa 0,0 l/m 0 min 0 min 0,0 UV-I 0 W/m 0,0 km/h (0 Bft)
07.03.2014 03:48 3,0 C 1,1 C 89 % 1025,6 hPa 0,0 l/m 0 min 0 min 0,0 UV-I 0 W/m 0,0 km/h (0 Bft)
07.03.2014 03:50 2,9 C 1,1 C 89 % 1025,6 hPa 0,0 l/m 0 min 0 min 0,0 UV-I 0 W/m 0,0 km/h (0 Bft)
07.03.2014 03:52 2,9 C 1,1 C 89 % 1025,7 hPa 0,0 l/m 0 min 0 min 0,0 UV-I 0 W/m 0,0 km/h (0 Bft)
07.03.2014 03:54 2,9 C 1,1 C 90 % 1025,7 hPa 0,0 l/m 0 min 0 min 0,0 UV-I 0 W/m 0,0 km/h (0 Bft)
07.03.2014 03:56 2,9 C 1,1 C 90 % 1025,6 hPa 0,0 l/m 0 min 0 min 0,0 UV-I 0 W/m 0,0 km/h (0 Bft)
07.03.2014 03:58 2,9 C 1,1 C 90 % 1025,5 hPa 0,0 l/m 0 min 0 min 0,0 UV-I 0 W/m 2,6 km/h (1 Bft)
07.03.2014 04:00 2,9 C 1,1 C 90 % 1025,5 hPa 0,0 l/m 0 min 0 min 0,0 UV-I 0 W/m 7,7 km/h (2 Bft)
07.03.2014 04:02 2,9 C 1,1 C 90 % 1025,6 hPa 0,0 l/m 0 min 0 min 0,0 UV-I 0 W/m 0,0 km/h (0 Bft)
07.03.2014 04:04 2,9 C 1,1 C 90 % 1025,6 hPa 0,0 l/m 0 min 0 min 0,0 UV-I 0 W/m 7,7 km/h (2 Bft)
07.03.2014 04:06 2,9 C 1,1 C 90 % 1025,6 hPa 0,0 l/m 0 min 0 min 0,0 UV-I 0 W/m 2,6 km/h (1 Bft)
07.03.2014 04:08 2,8 C 1,1 C 90 % 1025,7 hPa 0,0 l/m 0 min 0 min 0,0 UV-I 0 W/m 5,1 km/h (1 Bft)
07.03.2014 04:10 2,8 C 1,1 C 90 % 1025,5 hPa 0,0 l/m 0 min 0 min 0,0 UV-I 0 W/m 5,1 km/h (1 Bft)
07.03.2014 04:12 2,8 C 1,1 C 90 % 1025,5 hPa 0,0 l/m 0 min 0 min 0,0 UV-I 0 W/m 2,6 km/h (1 Bft)
07.03.2014 04:14 2,8 C 1,1 C 90 % 1025,5 hPa 0,0 l/m 0 min 0 min 0,0 UV-I 0 W/m 7,7 km/h (2 Bft)
07.03.2014 04:16 2,8 C 1,1 C 90 % 1025,5 hPa 0,0 l/m 0 min 0 min 0,0 UV-I 0 W/m 5,1 km/h (1 Bft)
07.03.2014 04:18 2,8 C 1,1 C 90 % 1025,5 hPa 0,0 l/m 0 min 0 min 0,0 UV-I 0 W/m 2,6 km/h (1 Bft)
07.03.2014 04:20 2,8 C 1,1 C 90 % 1025,5 hPa 0,0 l/m 0 min 0 min 0,0 UV-I 0 W/m 5,1 km/h (1 Bft)
07.03.2014 04:22 2,8 C 1,1 C 90 % 1025,5 hPa 0,0 l/m 0 min 0 min 0,0 UV-I 0 W/m 10,3 km/h (2 Bft)
07.03.2014 04:24 2,8 C 1,1 C 90 % 1025,4 hPa 0,0 l/m 0 min 0 min 0,0 UV-I 0 W/m 0,0 km/h (0 Bft)
07.03.2014 04:26 2,8 C 1,1 C 90 % 1025,4 hPa 0,0 l/m 0 min 0 min 0,0 UV-I 0 W/m 0,0 km/h (0 Bft)
07.03.2014 04:28 2,8 C 1,1 C 90 % 1025,5 hPa 0,0 l/m 0 min 0 min 0,0 UV-I 0 W/m 2,6 km/h (1 Bft)
07.03.2014 04:30 2,8 C 1,1 C 90 % 1025,4 hPa 0,0 l/m 0 min 0 min 0,0 UV-I 0 W/m 0,0 km/h (0 Bft)
07.03.2014 04:32 2,8 C 1,1 C 90 % 1025,4 hPa 0,0 l/m 0 min 0 min 0,0 UV-I 0 W/m 0,0 km/h (0 Bft)
07.03.2014 04:34 2,8 C 1,1 C 90 % 1025,4 hPa 0,0 l/m 0 min 0 min 0,0 UV-I 0 W/m 2,6 km/h (1 Bft)
07.03.2014 04:36 2,7 C 1,1 C 90 % 1025,4 hPa 0,0 l/m 0 min 0 min 0,0 UV-I 0 W/m 0,0 km/h (0 Bft)
07.03.2014 04:38 2,7 C 1,1 C 90 % 1025,4 hPa 0,0 l/m 0 min 0 min 0,0 UV-I 0 W/m 0,0 km/h (0 Bft)
07.03.2014 04:40 2,7 C 1,1 C 90 % 1025,4 hPa 0,0 l/m 0 min 0 min 0,0 UV-I 0 W/m 2,6 km/h (1 Bft)
07.03.2014 04:42 2,7 C 1,1 C 90 % 1025,3 hPa 0,0 l/m 0 min 0 min 0,0 UV-I 0 W/m 7,7 km/h (2 Bft)
07.03.2014 04:44 2,7 C 1,1 C 90 % 1025,4 hPa 0,0 l/m 0 min 0 min 0,0 UV-I 0 W/m 0,0 km/h (0 Bft)
07.03.2014 04:46 2,7 C 1,1 C 90 % 1025,3 hPa 0,0 l/m 0 min 0 min 0,0 UV-I 0 W/m 0,0 km/h (0 Bft)
07.03.2014 04:48 2,7 C 1,1 C 90 % 1025,3 hPa 0,0 l/m 0 min 0 min 0,0 UV-I 0 W/m 0,0 km/h (0 Bft)
07.03.2014 04:50 2,7 C 1,1 C 90 % 1025,4 hPa 0,0 l/m 0 min 0 min 0,0 UV-I 0 W/m 0,0 km/h (0 Bft)
07.03.2014 04:52 2,6 C 1,1 C 90 % 1025,3 hPa 0,0 l/m 0 min 0 min 0,0 UV-I 0 W/m 0,0 km/h (0 Bft)
07.03.2014 04:54 2,6 C 1,1 C 90 % 1025,4 hPa 0,0 l/m 0 min 0 min 0,0 UV-I 0 W/m 5,1 km/h (1 Bft)
07.03.2014 04:56 2,6 C 1,1 C 90 % 1025,3 hPa 0,0 l/m 0 min 0 min 0,0 UV-I 0 W/m 7,7 km/h (2 Bft)
07.03.2014 04:58 2,6 C 1,1 C 90 % 1025,4 hPa 0,0 l/m 0 min 0 min 0,0 UV-I 0 W/m 5,1 km/h (1 Bft)
07.03.2014 05:00 2,6 C 1,1 C 90 % 1025,4 hPa 0,0 l/m 0 min 0 min 0,0 UV-I 0 W/m 7,7 km/h (2 Bft)
07.03.2014 05:02 2,6 C 1,1 C 90 % 1025,4 hPa 0,0 l/m 0 min 0 min 0,0 UV-I 0 W/m 7,7 km/h (2 Bft)
07.03.2014 05:04 2,6 C 1,1 C 90 % 1025,3 hPa 0,0 l/m 0 min 0 min 0,0 UV-I 0 W/m 7,7 km/h (2 Bft)
07.03.2014 05:06 2,6 C 1,1 C 90 % 1025,3 hPa 0,0 l/m 0 min 0 min 0,0 UV-I 0 W/m 2,6 km/h (1 Bft)
07.03.2014 05:08 2,6 C 1,1 C 90 % 1025,3 hPa 0,0 l/m 0 min 0 min 0,0 UV-I 0 W/m 0,0 km/h (0 Bft)
07.03.2014 05:10 2,6 C 1,1 C 90 % 1025,4 hPa 0,0 l/m 0 min 0 min 0,0 UV-I 0 W/m 2,6 km/h (1 Bft)
07.03.2014 05:12 2,6 C 1,1 C 90 % 1025,4 hPa 0,0 l/m 0 min 0 min 0,0 UV-I 0 W/m 2,6 km/h (1 Bft)
07.03.2014 05:14 2,6 C 1,1 C 90 % 1025,4 hPa 0,0 l/m 0 min 0 min 0,0 UV-I 0 W/m 0,0 km/h (0 Bft)
07.03.2014 05:16 2,6 C 1,1 C 90 % 1025,3 hPa 0,0 l/m 0 min 0 min 0,0 UV-I 0 W/m 2,6 km/h (1 Bft)
07.03.2014 05:18 2,6 C 1,1 C 90 % 1025,3 hPa 0,0 l/m 0 min 0 min 0,0 UV-I 0 W/m 5,1 km/h (1 Bft)
07.03.2014 05:20 2,6 C 1,1 C 90 % 1025,2 hPa 0,0 l/m 0 min 0 min 0,0 UV-I 0 W/m 7,7 km/h (2 Bft)
07.03.2014 05:22 2,5 C 1,1 C 90 % 1025,2 hPa 0,0 l/m 0 min 0 min 0,0 UV-I 0 W/m 2,6 km/h (1 Bft)
07.03.2014 05:24 2,5 C 0,6 C 90 % 1025,2 hPa 0,0 l/m 0 min 0 min 0,0 UV-I 0 W/m 0,0 km/h (0 Bft)
07.03.2014 05:26 2,5 C 0,6 C 90 % 1025,3 hPa 0,0 l/m 0 min 0 min 0,0 UV-I 0 W/m 0,0 km/h (0 Bft)
07.03.2014 05:28 2,4 C 0,6 C 91 % 1025,2 hPa 0,0 l/m 0 min 0 min 0,0 UV-I 0 W/m 0,0 km/h (0 Bft)
07.03.2014 05:30 2,4 C 0,6 C 91 % 1025,4 hPa 0,0 l/m 0 min 0 min 0,0 UV-I 0 W/m 0,0 km/h (0 Bft)
07.03.2014 05:32 2,4 C 0,6 C 91 % 1025,3 hPa 0,0 l/m 0 min 0 min 0,0 UV-I 0 W/m 0,0 km/h (0 Bft)
07.03.2014 05:34 2,3 C 0,6 C 90 % 1025,3 hPa 0,0 l/m 0 min 0 min 0,0 UV-I 0 W/m 0,0 km/h (0 Bft)
07.03.2014 05:36 2,3 C 0,6 C 91 % 1025,3 hPa 0,0 l/m 0 min 0 min 0,0 UV-I 0 W/m 0,0 km/h (0 Bft)
07.03.2014 05:38 2,3 C 0,6 C 91 % 1025,2 hPa 0,0 l/m 0 min 0 min 0,0 UV-I 0 W/m 0,0 km/h (0 Bft)
07.03.2014 05:40 2,3 C 0,6 C 91 % 1025,3 hPa 0,0 l/m 0 min 0 min 0,0 UV-I 0 W/m 7,7 km/h (2 Bft)
07.03.2014 05:42 2,3 C 0,6 C 91 % 1025,3 hPa 0,0 l/m 0 min 0 min 0,0 UV-I 0 W/m 7,7 km/h (2 Bft)
07.03.2014 05:44 2,3 C 0,6 C 91 % 1025,3 hPa 0,0 l/m 0 min 0 min 0,0 UV-I 0 W/m 5,1 km/h (1 Bft)
07.03.2014 05:46 2,3 C 0,6 C 91 % 1025,2 hPa 0,0 l/m 0 min 0 min 0,0 UV-I 0 W/m 5,1 km/h (1 Bft)
07.03.2014 05:48 2,3 C 1,1 C 91 % 1025,3 hPa 0,0 l/m 0 min 0 min 0,0 UV-I 0 W/m 5,1 km/h (1 Bft)
07.03.2014 05:50 2,3 C 0,6 C 91 % 1025,3 hPa 0,0 l/m 0 min 0 min 0,0 UV-I 0 W/m 2,6 km/h (1 Bft)
07.03.2014 05:52 2,3 C 1,1 C 91 % 1025,3 hPa 0,0 l/m 0 min 0 min 0,0 UV-I 0 W/m 7,7 km/h (2 Bft)
07.03.2014 05:54 2,3 C 1,1 C 91 % 1025,3 hPa 0,0 l/m 0 min 0 min 0,0 UV-I 0 W/m 7,7 km/h (2 Bft)
07.03.2014 05:56 2,3 C 0,6 C 91 % 1025,3 hPa 0,0 l/m 0 min 0 min 0,0 UV-I 0 W/m 10,3 km/h (2 Bft)
07.03.2014 05:58 2,3 C 0,6 C 91 % 1025,3 hPa 0,0 l/m 0 min 0 min 0,0 UV-I 0 W/m 7,7 km/h (2 Bft)
07.03.2014 06:00 2,3 C 0,6 C 91 % 1025,2 hPa 0,0 l/m 0 min 0 min 0,0 UV-I 0 W/m 7,7 km/h (2 Bft)
07.03.2014 06:02 2,3 C 0,6 C 91 % 1025,3 hPa 0,0 l/m 0 min 0 min 0,0 UV-I 0 W/m 7,7 km/h (2 Bft)
07.03.2014 06:04 2,3 C 1,1 C 91 % 1025,2 hPa 0,0 l/m 0 min 0 min 0,0 UV-I 0 W/m 5,1 km/h (1 Bft)
07.03.2014 06:06 2,3 C 1,1 C 91 % 1025,2 hPa 0,0 l/m 0 min 0 min 0,0 UV-I 0 W/m 5,1 km/h (1 Bft)
07.03.2014 06:08 2,3 C 1,1 C 91 % 1025,3 hPa 0,0 l/m 0 min 0 min 0,0 UV-I 0 W/m 0,0 km/h (0 Bft)
07.03.2014 06:10 2,3 C 1,1 C 91 % 1025,3 hPa 0,0 l/m 0 min 0 min 0,0 UV-I 0 W/m 7,7 km/h (2 Bft)
07.03.2014 06:12 2,3 C 0,6 C 91 % 1025,3 hPa 0,0 l/m 0 min 0 min 0,0 UV-I 0 W/m 10,3 km/h (2 Bft)
07.03.2014 06:14 2,3 C 0,6 C 91 % 1025,2 hPa 0,0 l/m 0 min 0 min 0,0 UV-I 0 W/m 5,1 km/h (1 Bft)
07.03.2014 06:16 2,3 C 0,6 C 91 % 1025,2 hPa 0,0 l/m 0 min 0 min 0,0 UV-I 0 W/m 10,3 km/h (2 Bft)
07.03.2014 06:18 2,3 C 0,6 C 91 % 1025,1 hPa 0,0 l/m 0 min 0 min 0,0 UV-I 0 W/m 7,7 km/h (2 Bft)
07.03.2014 06:20 2,2 C 0,6 C 91 % 1025,2 hPa 0,0 l/m 0 min 0 min 0,0 UV-I 0 W/m 2,6 km/h (1 Bft)
07.03.2014 06:22 2,2 C 0,6 C 91 % 1025,1 hPa 0,0 l/m 0 min 0 min 0,0 UV-I 0 W/m 5,1 km/h (1 Bft)
07.03.2014 06:24 2,2 C 0,6 C 91 % 1025,3 hPa 0,0 l/m 0 min 0 min 0,0 UV-I 0 W/m 12,9 km/h (3 Bft)
07.03.2014 06:26 2,2 C 0,6 C 91 % 1025,3 hPa 0,0 l/m 0 min 0 min 0,0 UV-I 0 W/m 5,1 km/h (1 Bft)
07.03.2014 06:28 2,2 C 0,6 C 91 % 1025,3 hPa 0,0 l/m 0 min 0 min 0,0 UV-I 0 W/m 10,3 km/h (2 Bft)
07.03.2014 06:30 2,2 C 0,6 C 92 % 1025,2 hPa 0,0 l/m 0 min 0 min 0,0 UV-I 0 W/m 7,7 km/h (2 Bft)
07.03.2014 06:32 2,3 C 0,6 C 92 % 1025,3 hPa 0,0 l/m 0 min 0 min 0,0 UV-I 0 W/m 10,3 km/h (2 Bft)
07.03.2014 06:34 2,3 C 0,6 C 92 % 1025,2 hPa 0,0 l/m 0 min 0 min 0,0 UV-I 0 W/m 7,7 km/h (2 Bft)
07.03.2014 06:36 2,3 C 1,1 C 92 % 1025,2 hPa 0,0 l/m 0 min 0 min 0,0 UV-I 0 W/m 15,4 km/h (3 Bft)
07.03.2014 06:38 2,3 C 1,1 C 92 % 1025,3 hPa 0,0 l/m 0 min 0 min 0,0 UV-I 0 W/m 10,3 km/h (2 Bft)
07.03.2014 06:40 2,3 C 1,1 C 92 % 1025,3 hPa 0,0 l/m 0 min 0 min 0,0 UV-I 0 W/m 18,0 km/h (3 Bft)
07.03.2014 06:42 2,3 C 1,1 C 92 % 1025,2 hPa 0,0 l/m 0 min 0 min 0,0 UV-I 0 W/m 10,3 km/h (2 Bft)
07.03.2014 06:44 2,3 C 1,1 C 92 % 1025,3 hPa 0,0 l/m 0 min 0 min 0,0 UV-I 0 W/m 5,1 km/h (1 Bft)
07.03.2014 06:46 2,3 C 1,1 C 92 % 1025,3 hPa 0,0 l/m 0 min 0 min 0,0 UV-I 0 W/m 12,9 km/h (3 Bft)
07.03.2014 06:48 2,3 C 1,1 C 92 % 1025,3 hPa 0,0 l/m 0 min 0 min 0,0 UV-I 0 W/m 7,7 km/h (2 Bft)
07.03.2014 06:50 2,3 C 1,1 C 92 % 1025,3 hPa 0,0 l/m 0 min 0 min 0,0 UV-I 0 W/m 12,9 km/h (3 Bft)
07.03.2014 06:52 2,3 C 1,1 C 92 % 1025,4 hPa 0,0 l/m 0 min 0 min 0,0 UV-I 0 W/m 7,7 km/h (2 Bft)
07.03.2014 06:54 2,3 C 1,1 C 92 % 1025,4 hPa 0,0 l/m 0 min 0 min 0,0 UV-I 0 W/m 2,6 km/h (1 Bft)
07.03.2014 06:56 2,3 C 1,1 C 92 % 1025,3 hPa 0,0 l/m 0 min 0 min 0,0 UV-I 5 W/m 2,6 km/h (1 Bft)
07.03.2014 06:58 2,3 C 1,1 C 92 % 1025,3 hPa 0,0 l/m 0 min 0 min 0,0 UV-I 5 W/m 0,0 km/h (0 Bft)
07.03.2014 07:00 2,2 C 0,6 C 92 % 1025,3 hPa 0,0 l/m 0 min 0 min 0,0 UV-I 7 W/m 5,1 km/h (1 Bft)
07.03.2014 07:02 2,2 C 0,6 C 92 % 1025,3 hPa 0,0 l/m 0 min 0 min 0,0 UV-I 7 W/m 5,1 km/h (1 Bft)
07.03.2014 07:04 2,2 C 0,6 C 92 % 1025,3 hPa 0,0 l/m 0 min 0 min 0,0 UV-I 7 W/m 7,7 km/h (2 Bft)
07.03.2014 07:06 2,2 C 0,6 C 92 % 1025,2 hPa 0,0 l/m 0 min 0 min 0,0 UV-I 7 W/m 10,3 km/h (2 Bft)
07.03.2014 07:08 2,2 C 0,6 C 92 % 1025,3 hPa 0,0 l/m 0 min 0 min 0,0 UV-I 9 W/m 7,7 km/h (2 Bft)
07.03.2014 07:10 2,2 C 0,6 C 92 % 1025,3 hPa 0,0 l/m 0 min 0 min 0,0 UV-I 11 W/m 0,0 km/h (0 Bft)
07.03.2014 07:12 2,2 C 0,6 C 92 % 1025,3 hPa 0,0 l/m 0 min 0 min 0,0 UV-I 12 W/m 7,7 km/h (2 Bft)
07.03.2014 07:14 2,1 C 0,6 C 92 % 1025,3 hPa 0,0 l/m 0 min 0 min 0,0 UV-I 12 W/m 5,1 km/h (1 Bft)
07.03.2014 07:16 2,1 C 0,6 C 92 % 1025,3 hPa 0,0 l/m 0 min 0 min 0,0 UV-I 14 W/m 10,3 km/h (2 Bft)
07.03.2014 07:18 2,1 C 0,6 C 92 % 1025,3 hPa 0,0 l/m 0 min 0 min 0,0 UV-I 16 W/m 0,0 km/h (0 Bft)
07.03.2014 07:20 2,1 C 0,6 C 92 % 1025,4 hPa 0,0 l/m 0 min 0 min 0,0 UV-I 18 W/m 2,6 km/h (1 Bft)
07.03.2014 07:22 2,1 C 0,6 C 92 % 1025,4 hPa 0,0 l/m 0 min 0 min 0,0 UV-I 19 W/m 7,7 km/h (2 Bft)
07.03.2014 07:24 2,1 C 0,6 C 92 % 1025,4 hPa 0,0 l/m 2 min 0 min 0,0 UV-I 23 W/m 7,7 km/h (2 Bft)
07.03.2014 07:26 2,1 C 0,6 C 92 % 1025,4 hPa 0,0 l/m 2 min 0 min 0,0 UV-I 23 W/m 10,3 km/h (2 Bft)
07.03.2014 07:28 2,1 C 1,1 C 92 % 1025,3 hPa 0,0 l/m 2 min 0 min 0,0 UV-I 26 W/m 5,1 km/h (1 Bft)
07.03.2014 07:30 2,1 C 1,1 C 92 % 1025,4 hPa 0,0 l/m 2 min 0 min 0,0 UV-I 28 W/m 10,3 km/h (2 Bft)
07.03.2014 07:32 2,1 C 1,1 C 92 % 1025,3 hPa 0,0 l/m 0 min 0 min 0,0 UV-I 30 W/m 0,0 km/h (0 Bft)
07.03.2014 07:34 2,1 C 1,1 C 92 % 1025,3 hPa 0,0 l/m 0 min 0 min 0,0 UV-I 33 W/m 7,7 km/h (2 Bft)
07.03.2014 07:36 2,1 C 1,1 C 92 % 1025,4 hPa 0,0 l/m 2 min 0 min 0,0 UV-I 37 W/m 5,1 km/h (1 Bft)
07.03.2014 07:38 2,2 C 1,1 C 92 % 1025,3 hPa 0,0 l/m 0 min 0 min 0,0 UV-I 39 W/m 5,1 km/h (1 Bft)
07.03.2014 07:40 2,2 C 1,1 C 92 % 1025,3 hPa 0,0 l/m 0 min 0 min 0,0 UV-I 42 W/m 5,1 km/h (1 Bft)
07.03.2014 07:42 2,2 C 1,1 C 92 % 1025,3 hPa 0,0 l/m 0 min 0 min 0,0 UV-I 44 W/m 10,3 km/h (2 Bft)
07.03.2014 07:44 2,2 C 1,1 C 92 % 1025,4 hPa 0,0 l/m 0 min 0 min 0,0 UV-I 47 W/m 10,3 km/h (2 Bft)
07.03.2014 07:46 2,2 C 1,1 C 92 % 1025,4 hPa 0,0 l/m 2 min 0 min 0,0 UV-I 53 W/m 7,7 km/h (2 Bft)
07.03.2014 07:48 2,2 C 1,1 C 92 % 1025,4 hPa 0,0 l/m 2 min 0 min 0,0 UV-I 54 W/m 0,0 km/h (0 Bft)
07.03.2014 07:50 2,3 C 1,1 C 92 % 1025,4 hPa 0,0 l/m 0 min 0 min 0,0 UV-I 54 W/m 0,0 km/h (0 Bft)
07.03.2014 07:52 2,3 C 1,1 C 92 % 1025,4 hPa 0,0 l/m 2 min 0 min 0,0 UV-I 60 W/m 7,7 km/h (2 Bft)
07.03.2014 07:54 2,3 C 1,1 C 92 % 1025,4 hPa 0,0 l/m 2 min 0 min 0,0 UV-I 65 W/m 0,0 km/h (0 Bft)
07.03.2014 07:56 2,3 C 1,1 C 92 % 1025,4 hPa 0,0 l/m 2 min 0 min 0,0 UV-I 69 W/m 7,7 km/h (2 Bft)
07.03.2014 07:58 2,4 C 1,1 C 92 % 1025,4 hPa 0,0 l/m 2 min 0 min 0,0 UV-I 76 W/m 7,7 km/h (2 Bft)
07.03.2014 08:00 2,4 C 1,1 C 92 % 1025,4 hPa 0,0 l/m 2 min 0 min 0,0 UV-I 77 W/m 2,6 km/h (1 Bft)
07.03.2014 08:02 2,4 C 1,7 C 92 % 1025,4 hPa 0,0 l/m 2 min 0 min 0,0 UV-I 77 W/m 0,0 km/h (0 Bft)
07.03.2014 08:04 2,5 C 1,7 C 92 % 1025,4 hPa 0,0 l/m 0 min 0 min 0,0 UV-I 69 W/m 12,9 km/h (3 Bft)
07.03.2014 08:06 2,5 C 1,7 C 92 % 1025,4 hPa 0,0 l/m 0 min 0 min 0,0 UV-I 67 W/m 7,7 km/h (2 Bft)
07.03.2014 08:08 2,6 C 1,7 C 92 % 1025,4 hPa 0,0 l/m 0 min 0 min 0,0 UV-I 69 W/m 7,7 km/h (2 Bft)
07.03.2014 08:10 2,6 C 1,7 C 92 % 1025,4 hPa 0,0 l/m 0 min 0 min 0,0 UV-I 69 W/m 7,7 km/h (2 Bft)
07.03.2014 08:12 2,6 C 1,7 C 92 % 1025,5 hPa 0,0 l/m 0 min 0 min 0,0 UV-I 81 W/m 7,7 km/h (2 Bft)
07.03.2014 08:14 2,6 C 1,7 C 92 % 1025,4 hPa 0,0 l/m 0 min 0 min 0,0 UV-I 90 W/m 12,9 km/h (3 Bft)
07.03.2014 08:16 2,7 C 1,7 C 92 % 1025,5 hPa 0,0 l/m 2 min 0 min 0,0 UV-I 107 W/m 15,4 km/h (3 Bft)
07.03.2014 08:18 2,7 C 1,7 C 91 % 1025,4 hPa 0,0 l/m 2 min 0 min 0,0 UV-I 113 W/m 10,3 km/h (2 Bft)
07.03.2014 08:20 2,8 C 1,7 C 92 % 1025,4 hPa 0,0 l/m 2 min 0 min 0,0 UV-I 116 W/m 12,9 km/h (3 Bft)
07.03.2014 08:22 2,8 C 1,7 C 92 % 1025,5 hPa 0,0 l/m 2 min 0 min 0,0 UV-I 121 W/m 10,3 km/h (2 Bft)
07.03.2014 08:24 2,8 C 1,7 C 91 % 1025,4 hPa 0,0 l/m 2 min 0 min 0,0 UV-I 128 W/m 7,7 km/h (2 Bft)
07.03.2014 08:26 2,9 C 2,2 C 91 % 1025,5 hPa 0,0 l/m 2 min 0 min 0,0 UV-I 135 W/m 15,4 km/h (3 Bft)
07.03.2014 08:28 2,9 C 2,2 C 91 % 1025,5 hPa 0,0 l/m 2 min 0 min 0,0 UV-I 139 W/m 15,4 km/h (3 Bft)
07.03.2014 08:30 3,0 C 2,2 C 91 % 1025,5 hPa 0,0 l/m 2 min 0 min 0,0 UV-I 144 W/m 10,3 km/h (2 Bft)
07.03.2014 08:32 3,1 C 2,2 C 91 % 1025,5 hPa 0,0 l/m 2 min 0 min 0,0 UV-I 149 W/m 10,3 km/h (2 Bft)
07.03.2014 08:34 3,1 C 2,2 C 91 % 1025,5 hPa 0,0 l/m 2 min 0 min 0,0 UV-I 153 W/m 12,9 km/h (3 Bft)
07.03.2014 08:36 3,2 C 2,2 C 91 % 1025,5 hPa 0,0 l/m 2 min 0 min 0,0 UV-I 158 W/m 10,3 km/h (2 Bft)
07.03.2014 08:38 3,2 C 2,2 C 91 % 1025,5 hPa 0,0 l/m 2 min 0 min 0,0 UV-I 162 W/m 10,3 km/h (2 Bft)
07.03.2014 08:40 3,3 C 2,2 C 91 % 1025,5 hPa 0,0 l/m 2 min 0 min 0,0 UV-I 160 W/m 7,7 km/h (2 Bft)
07.03.2014 08:42 3,3 C 2,2 C 91 % 1025,5 hPa 0,0 l/m 2 min 0 min 0,0 UV-I 153 W/m 7,7 km/h (2 Bft)
07.03.2014 08:44 3,4 C 2,8 C 91 % 1025,5 hPa 0,0 l/m 2 min 0 min 0,0 UV-I 149 W/m 12,9 km/h (3 Bft)
07.03.2014 08:46 3,5 C 2,8 C 91 % 1025,5 hPa 0,0 l/m 2 min 0 min 0,0 UV-I 174 W/m 12,9 km/h (3 Bft)
07.03.2014 08:48 3,6 C 2,8 C 91 % 1025,5 hPa 0,0 l/m 2 min 0 min 0,0 UV-I 186 W/m 2,6 km/h (1 Bft)
07.03.2014 08:50 3,6 C 2,8 C 90 % 1025,4 hPa 0,0 l/m 2 min 0 min 0,0 UV-I 190 W/m 10,3 km/h (2 Bft)
07.03.2014 08:52 3,7 C 2,8 C 90 % 1025,4 hPa 0,0 l/m 2 min 0 min 0,0 UV-I 195 W/m 10,3 km/h (2 Bft)
07.03.2014 08:54 3,8 C 2,8 C 90 % 1025,5 hPa 0,0 l/m 2 min 0 min 0,0 UV-I 199 W/m 10,3 km/h (2 Bft)
07.03.2014 08:56 3,8 C 2,8 C 90 % 1025,4 hPa 0,0 l/m 2 min 0 min 0,0 UV-I 199 W/m 10,3 km/h (2 Bft)
07.03.2014 08:58 3,9 C 2,8 C 90 % 1025,4 hPa 0,0 l/m 2 min 0 min 0,0 UV-I 206 W/m 7,7 km/h (2 Bft)
07.03.2014 09:00 4,0 C 2,8 C 90 % 1025,4 hPa 0,0 l/m 2 min 0 min 0,0 UV-I 213 W/m 10,3 km/h (2 Bft)
07.03.2014 09:02 4,1 C 3,3 C 90 % 1025,4 hPa 0,0 l/m 2 min 0 min 0,0 UV-I 220 W/m 5,1 km/h (1 Bft)
07.03.2014 09:04 4,2 C 3,3 C 90 % 1025,5 hPa 0,0 l/m 2 min 0 min 0,0 UV-I 223 W/m 10,3 km/h (2 Bft)
07.03.2014 09:06 4,3 C 3,3 C 89 % 1025,5 hPa 0,0 l/m 2 min 0 min 0,0 UV-I 221 W/m 12,9 km/h (3 Bft)
07.03.2014 09:08 4,3 C 3,3 C 89 % 1025,5 hPa 0,0 l/m 2 min 0 min 0,0 UV-I 220 W/m 10,3 km/h (2 Bft)
07.03.2014 09:10 4,4 C 3,3 C 89 % 1025,4 hPa 0,0 l/m 2 min 0 min 0,0 UV-I 225 W/m 7,7 km/h (2 Bft)
07.03.2014 09:12 4,5 C 3,3 C 89 % 1025,4 hPa 0,0 l/m 2 min 0 min 0,0 UV-I 227 W/m 10,3 km/h (2 Bft)
07.03.2014 09:14 4,6 C 3,3 C 88 % 1025,4 hPa 0,0 l/m 2 min 0 min 0,0 UV-I 230 W/m 12,9 km/h (3 Bft)
07.03.2014 09:16 4,7 C 3,3 C 88 % 1025,4 hPa 0,0 l/m 2 min 0 min 0,0 UV-I 230 W/m 7,7 km/h (2 Bft)
07.03.2014 09:18 4,8 C 3,9 C 88 % 1025,4 hPa 0,0 l/m 2 min 0 min 0,0 UV-I 221 W/m 12,9 km/h (3 Bft)
07.03.2014 09:20 4,9 C 3,9 C 88 % 1025,5 hPa 0,0 l/m 2 min 0 min 0,0 UV-I 229 W/m 10,3 km/h (2 Bft)
07.03.2014 09:22 5,0 C 3,9 C 87 % 1025,5 hPa 0,0 l/m 2 min 0 min 0,0 UV-I 225 W/m 15,4 km/h (3 Bft)
07.03.2014 09:24 5,1 C 3,9 C 87 % 1025,5 hPa 0,0 l/m 2 min 0 min 0,0 UV-I 236 W/m 12,9 km/h (3 Bft)
07.03.2014 09:26 5,2 C 3,9 C 87 % 1025,5 hPa 0,0 l/m 2 min 0 min 0,0 UV-I 244 W/m 12,9 km/h (3 Bft)
07.03.2014 09:28 5,3 C 3,9 C 87 % 1025,5 hPa 0,0 l/m 2 min 0 min 0,0 UV-I 243 W/m 12,9 km/h (3 Bft)
07.03.2014 09:30 5,4 C 3,9 C 87 % 1025,5 hPa 0,0 l/m 2 min 0 min 0,0 UV-I 237 W/m 7,7 km/h (2 Bft)
07.03.2014 09:32 5,6 C 3,9 C 87 % 1025,5 hPa 0,0 l/m 2 min 0 min 0,0 UV-I 251 W/m 15,4 km/h (3 Bft)
07.03.2014 09:34 5,7 C 4,4 C 86 % 1025,5 hPa 0,0 l/m 2 min 0 min 0,0 UV-I 255 W/m 10,3 km/h (2 Bft)
07.03.2014 09:36 5,8 C 4,4 C 86 % 1025,5 hPa 0,0 l/m 2 min 0 min 0,0 UV-I 253 W/m 10,3 km/h (2 Bft)
07.03.2014 09:38 5,8 C 4,4 C 86 % 1025,6 hPa 0,0 l/m 2 min 0 min 0,0 UV-I 253 W/m 12,9 km/h (3 Bft)
07.03.2014 09:40 6,0 C 4,4 C 86 % 1025,5 hPa 0,0 l/m 2 min 0 min 0,0 UV-I 262 W/m 12,9 km/h (3 Bft)
07.03.2014 09:42 6,1 C 4,4 C 85 % 1025,5 hPa 0,0 l/m 2 min 0 min 0,0 UV-I 264 W/m 12,9 km/h (3 Bft)
07.03.2014 09:44 6,3 C 4,4 C 85 % 1025,5 hPa 0,0 l/m 2 min 0 min 0,0 UV-I 288 W/m 7,7 km/h (2 Bft)
07.03.2014 09:46 6,4 C 5,0 C 85 % 1025,5 hPa 0,0 l/m 2 min 0 min 0,0 UV-I 283 W/m 0,0 km/h (0 Bft)
07.03.2014 09:48 6,5 C 5,0 C 85 % 1025,5 hPa 0,0 l/m 2 min 0 min 0,0 UV-I 295 W/m 2,6 km/h (1 Bft)
07.03.2014 09:50 6,7 C 5,0 C 84 % 1025,5 hPa 0,0 l/m 2 min 0 min 0,0 UV-I 306 W/m 7,7 km/h (2 Bft)
07.03.2014 09:52 6,8 C 5,0 C 84 % 1025,5 hPa 0,0 l/m 2 min 0 min 0,0 UV-I 318 W/m 5,1 km/h (1 Bft)
07.03.2014 09:54 7,0 C 5,6 C 83 % 1025,5 hPa 0,0 l/m 2 min 0 min 0,0 UV-I 320 W/m 2,6 km/h (1 Bft)
07.03.2014 09:56 7,1 C 5,6 C 83 % 1025,5 hPa 0,0 l/m 2 min 0 min 0,0 UV-I 330 W/m 0,0 km/h (0 Bft)
07.03.2014 09:58 7,2 C 5,6 C 82 % 1025,5 hPa 0,0 l/m 2 min 0 min 0,0 UV-I 343 W/m 12,9 km/h (3 Bft)
07.03.2014 10:00 7,3 C 5,6 C 82 % 1025,5 hPa 0,0 l/m 2 min 0 min 0,0 UV-I 343 W/m 7,7 km/h (2 Bft)
07.03.2014 10:02 7,5 C 6,1 C 81 % 1025,5 hPa 0,0 l/m 2 min 0 min 0,0 UV-I 355 W/m 18,0 km/h (3 Bft)
07.03.2014 10:04 7,7 C 6,1 C 81 % 1025,5 hPa 0,0 l/m 2 min 0 min 0,0 UV-I 362 W/m 10,3 km/h (2 Bft)
07.03.2014 10:06 7,8 C 6,1 C 81 % 1025,5 hPa 0,0 l/m 2 min 0 min 0,5 UV-I 364 W/m 10,3 km/h (2 Bft)
07.03.2014 10:08 7,9 C 6,1 C 81 % 1025,5 hPa 0,0 l/m 2 min 0 min 0,5 UV-I 369 W/m 5,1 km/h (1 Bft)
07.03.2014 10:10 8,1 C 6,7 C 80 % 1025,5 hPa 0,0 l/m 2 min 0 min 0,5 UV-I 369 W/m 10,3 km/h (2 Bft)
07.03.2014 10:12 8,2 C 6,7 C 79 % 1025,5 hPa 0,0 l/m 2 min 0 min 0,5 UV-I 369 W/m 10,3 km/h (2 Bft)
07.03.2014 10:14 8,2 C 6,7 C 78 % 1025,5 hPa 0,0 l/m 2 min 0 min 0,5 UV-I 373 W/m 15,4 km/h (3 Bft)
07.03.2014 10:16 8,3 C 6,7 C 78 % 1025,5 hPa 0,0 l/m 2 min 0 min 0,6 UV-I 378 W/m 10,3 km/h (2 Bft)
07.03.2014 10:18 8,4 C 7,2 C 78 % 1025,4 hPa 0,0 l/m 2 min 0 min 0,6 UV-I 383 W/m 12,9 km/h (3 Bft)
07.03.2014 10:20 8,6 C 7,2 C 78 % 1025,3 hPa 0,0 l/m 2 min 0 min 0,6 UV-I 387 W/m 12,9 km/h (3 Bft)
07.03.2014 10:22 8,7 C 7,2 C 77 % 1025,3 hPa 0,0 l/m 2 min 0 min 0,6 UV-I 390 W/m 2,6 km/h (1 Bft)
07.03.2014 10:24 8,8 C 7,2 C 76 % 1025,3 hPa 0,0 l/m 2 min 0 min 0,6 UV-I 392 W/m 10,3 km/h (2 Bft)
07.03.2014 10:26 8,8 C 7,2 C 77 % 1025,3 hPa 0,0 l/m 2 min 0 min 0,7 UV-I 399 W/m 15,4 km/h (3 Bft)
07.03.2014 10:28 8,9 C 7,2 C 76 % 1025,3 hPa 0,0 l/m 2 min 0 min 0,7 UV-I 397 W/m 12,9 km/h (3 Bft)
07.03.2014 10:30 9,0 C 7,8 C 76 % 1025,4 hPa 0,0 l/m 2 min 0 min 0,7 UV-I 373 W/m 15,4 km/h (3 Bft)
07.03.2014 10:32 9,1 C 7,8 C 76 % 1025,3 hPa 0,0 l/m 2 min 0 min 0,7 UV-I 390 W/m 10,3 km/h (2 Bft)
07.03.2014 10:34 9,2 C 7,8 C 76 % 1025,3 hPa 0,0 l/m 2 min 0 min 0,6 UV-I 366 W/m 7,7 km/h (2 Bft)
07.03.2014 10:36 9,4 C 7,8 C 76 % 1025,3 hPa 0,0 l/m 2 min 0 min 0,6 UV-I 288 W/m 7,7 km/h (2 Bft)
07.03.2014 10:38 9,4 C 7,8 C 76 % 1025,3 hPa 0,0 l/m 2 min 0 min 0,6 UV-I 323 W/m 10,3 km/h (2 Bft)
07.03.2014 10:40 9,4 C 7,8 C 75 % 1025,2 hPa 0,0 l/m 2 min 0 min 0,6 UV-I 341 W/m 5,1 km/h (1 Bft)
07.03.2014 10:42 9,4 C 7,8 C 75 % 1025,2 hPa 0,0 l/m 2 min 0 min 0,7 UV-I 327 W/m 7,7 km/h (2 Bft)
07.03.2014 10:44 9,3 C 7,8 C 75 % 1025,2 hPa 0,0 l/m 2 min 0 min 0,7 UV-I 346 W/m 5,1 km/h (1 Bft)
07.03.2014 10:46 9,3 C 7,8 C 75 % 1025,2 hPa 0,0 l/m 2 min 0 min 0,7 UV-I 336 W/m 5,1 km/h (1 Bft)
07.03.2014 10:48 9,3 C 7,8 C 75 % 1025,2 hPa 0,0 l/m 2 min 0 min 0,7 UV-I 322 W/m 7,7 km/h (2 Bft)
07.03.2014 10:50 9,4 C 7,8 C 76 % 1025,1 hPa 0,0 l/m 2 min 0 min 0,7 UV-I 341 W/m 10,3 km/h (2 Bft)
07.03.2014 10:52 9,6 C 7,8 C 76 % 1025,1 hPa 0,0 l/m 2 min 0 min 0,7 UV-I 334 W/m 7,7 km/h (2 Bft)
07.03.2014 10:54 9,8 C 8,3 C 75 % 1025,2 hPa 0,0 l/m 2 min 0 min 0,7 UV-I 338 W/m 10,3 km/h (2 Bft)
07.03.2014 10:56 9,9 C 8,3 C 75 % 1025,1 hPa 0,0 l/m 2 min 0 min 0,7 UV-I 327 W/m 12,9 km/h (3 Bft)
07.03.2014 10:58 9,9 C 8,3 C 73 % 1025,1 hPa 0,0 l/m 2 min 0 min 0,8 UV-I 350 W/m 7,7 km/h (2 Bft)
07.03.2014 11:00 9,8 C 8,3 C 73 % 1025,1 hPa 0,0 l/m 2 min 0 min 0,8 UV-I 371 W/m 12,9 km/h (3 Bft)
07.03.2014 11:02 9,9 C 8,3 C 73 % 1025,2 hPa 0,0 l/m 2 min 0 min 0,8 UV-I 325 W/m 15,4 km/h (3 Bft)
07.03.2014 11:04 10,0 C 8,3 C 72 % 1025,2 hPa 0,0 l/m 2 min 0 min 0,8 UV-I 367 W/m 10,3 km/h (2 Bft)
07.03.2014 11:06 10,1 C 8,3 C 72 % 1025,1 hPa 0,0 l/m 2 min 0 min 0,8 UV-I 359 W/m 10,3 km/h (2 Bft)
07.03.2014 11:08 10,2 C 8,3 C 71 % 1025,1 hPa 0,0 l/m 2 min 0 min 0,8 UV-I 357 W/m 7,7 km/h (2 Bft)
07.03.2014 11:10 10,3 C 8,9 C 71 % 1025,1 hPa 0,0 l/m 2 min 0 min 0,8 UV-I 346 W/m 10,3 km/h (2 Bft)
07.03.2014 11:12 10,3 C 8,9 C 71 % 1025,1 hPa 0,0 l/m 2 min 0 min 0,9 UV-I 403 W/m 2,6 km/h (1 Bft)
07.03.2014 11:14 10,4 C 8,9 C 72 % 1025,1 hPa 0,0 l/m 2 min 0 min 1,0 UV-I 406 W/m 10,3 km/h (2 Bft)
07.03.2014 11:16 10,7 C 8,9 C 72 % 1025,1 hPa 0,0 l/m 2 min 0 min 1,1 UV-I 482 W/m 12,9 km/h (3 Bft)
07.03.2014 11:18 10,8 C 9,4 C 70 % 1025,1 hPa 0,0 l/m 2 min 0 min 1,0 UV-I 397 W/m 15,4 km/h (3 Bft)
07.03.2014 11:20 10,9 C 9,4 C 70 % 1025,1 hPa 0,0 l/m 2 min 0 min 1,0 UV-I 413 W/m 12,9 km/h (3 Bft)
07.03.2014 11:22 10,9 C 9,4 C 70 % 1025,1 hPa 0,0 l/m 2 min 0 min 1,0 UV-I 417 W/m 15,4 km/h (3 Bft)
07.03.2014 11:24 10,9 C 9,4 C 70 % 1025,1 hPa 0,0 l/m 2 min 0 min 1,1 UV-I 432 W/m 12,9 km/h (3 Bft)
07.03.2014 11:26 10,9 C 9,4 C 71 % 1025,1 hPa 0,0 l/m 2 min 0 min 1,1 UV-I 469 W/m 5,1 km/h (1 Bft)
07.03.2014 11:28 11,3 C 9,4 C 71 % 1025,0 hPa 0,0 l/m 2 min 0 min 1,2 UV-I 497 W/m 7,7 km/h (2 Bft)
07.03.2014 11:30 11,6 C 10,0 C 70 % 1025,0 hPa 0,0 l/m 2 min 0 min 1,2 UV-I 501 W/m 0,0 km/h (0 Bft)
07.03.2014 11:32 11,7 C 10,0 C 68 % 1025,1 hPa 0,0 l/m 2 min 0 min 1,2 UV-I 524 W/m 10,3 km/h (2 Bft)
07.03.2014 11:34 11,8 C 10,6 C 67 % 1025,1 hPa 0,0 l/m 2 min 0 min 1,2 UV-I 506 W/m 12,9 km/h (3 Bft)
07.03.2014 11:36 11,8 C 10,6 C 68 % 1025,1 hPa 0,0 l/m 2 min 0 min 1,2 UV-I 497 W/m 2,6 km/h (1 Bft)
07.03.2014 11:38 11,9 C 10,6 C 66 % 1025,1 hPa 0,0 l/m 2 min 0 min 1,2 UV-I 503 W/m 18,0 km/h (3 Bft)
07.03.2014 11:40 12,0 C 10,6 C 65 % 1025,1 hPa 0,0 l/m 2 min 0 min 1,2 UV-I 466 W/m 10,3 km/h (2 Bft)
07.03.2014 11:42 12,2 C 10,6 C 65 % 1025,0 hPa 0,0 l/m 2 min 0 min 1,1 UV-I 420 W/m 15,4 km/h (3 Bft)
07.03.2014 11:44 12,2 C 10,6 C 64 % 1025,0 hPa 0,0 l/m 2 min 0 min 1,2 UV-I 497 W/m 12,9 km/h (3 Bft)
07.03.2014 11:46 12,2 C 11,1 C 64 % 1025,0 hPa 0,0 l/m 2 min 0 min 1,2 UV-I 504 W/m 15,4 km/h (3 Bft)
07.03.2014 11:48 12,3 C 11,1 C 62 % 1025,0 hPa 0,0 l/m 2 min 0 min 1,2 UV-I 512 W/m 7,7 km/h (2 Bft)
07.03.2014 11:50 12,2 C 11,1 C 62 % 1025,0 hPa 0,0 l/m 2 min 0 min 1,1 UV-I 496 W/m 7,7 km/h (2 Bft)
07.03.2014 11:52 12,3 C 11,1 C 63 % 1025,0 hPa 0,0 l/m 2 min 0 min 1,1 UV-I 492 W/m 7,7 km/h (2 Bft)
07.03.2014 11:54 12,3 C 11,1 C 61 % 1025,1 hPa 0,0 l/m 2 min 0 min 1,0 UV-I 469 W/m 10,3 km/h (2 Bft)
07.03.2014 11:56 12,2 C 11,1 C 63 % 1025,1 hPa 0,0 l/m 2 min 0 min 0,9 UV-I 455 W/m 7,7 km/h (2 Bft)
07.03.2014 11:58 12,1 C 11,1 C 62 % 1025,0 hPa 0,0 l/m 2 min 0 min 0,9 UV-I 427 W/m 10,3 km/h (2 Bft)
07.03.2014 12:00 12,2 C 11,1 C 62 % 1025,0 hPa 0,0 l/m 2 min 0 min 0,8 UV-I 445 W/m 7,7 km/h (2 Bft)
07.03.2014 12:02 12,4 C 11,1 C 64 % 1025,0 hPa 0,0 l/m 2 min 0 min 0,8 UV-I 431 W/m 2,6 km/h (1 Bft)
07.03.2014 12:04 12,5 C 11,1 C 61 % 1025,1 hPa 0,0 l/m 2 min 0 min 0,8 UV-I 441 W/m 10,3 km/h (2 Bft)
07.03.2014 12:06 12,4 C 11,1 C 61 % 1025,1 hPa 0,0 l/m 2 min 0 min 0,8 UV-I 487 W/m 7,7 km/h (2 Bft)
07.03.2014 12:08 12,3 C 11,1 C 62 % 1025,0 hPa 0,0 l/m 2 min 0 min 0,8 UV-I 434 W/m 12,9 km/h (3 Bft)
07.03.2014 12:10 12,3 C 11,1 C 62 % 1025,1 hPa 0,0 l/m 2 min 0 min 0,8 UV-I 399 W/m 10,3 km/h (2 Bft)
07.03.2014 12:12 12,3 C 11,1 C 62 % 1025,1 hPa 0,0 l/m 2 min 0 min 0,8 UV-I 369 W/m 10,3 km/h (2 Bft)
07.03.2014 12:14 12,2 C 11,1 C 62 % 1025,1 hPa 0,0 l/m 2 min 0 min 0,8 UV-I 357 W/m 10,3 km/h (2 Bft)
07.03.2014 12:16 12,1 C 10,6 C 63 % 1025,0 hPa 0,0 l/m 2 min 0 min 0,8 UV-I 350 W/m 10,3 km/h (2 Bft)
07.03.2014 12:18 12,1 C 11,1 C 64 % 1025,0 hPa 0,0 l/m 2 min 0 min 0,8 UV-I 383 W/m 10,3 km/h (2 Bft)
07.03.2014 12:20 12,2 C 11,1 C 63 % 1025,0 hPa 0,0 l/m 2 min 0 min 0,8 UV-I 364 W/m 12,9 km/h (3 Bft)
07.03.2014 12:22 12,2 C 11,1 C 63 % 1025,0 hPa 0,0 l/m 2 min 0 min 0,8 UV-I 387 W/m 12,9 km/h (3 Bft)
07.03.2014 12:24 12,3 C 11,1 C 62 % 1025,0 hPa 0,0 l/m 2 min 0 min 0,8 UV-I 415 W/m 15,4 km/h (3 Bft)
07.03.2014 12:26 12,3 C 11,1 C 62 % 1025,0 hPa 0,0 l/m 2 min 0 min 0,9 UV-I 483 W/m 15,4 km/h (3 Bft)
07.03.2014 12:28 12,3 C 11,1 C 62 % 1025,0 hPa 0,0 l/m 2 min 0 min 0,9 UV-I 503 W/m 18,0 km/h (3 Bft)
07.03.2014 12:30 12,4 C 11,1 C 61 % 1024,9 hPa 0,0 l/m 2 min 0 min 0,8 UV-I 429 W/m 25,7 km/h (4 Bft)
07.03.2014 12:32 12,4 C 11,1 C 62 % 1024,9 hPa 0,0 l/m 2 min 0 min 0,8 UV-I 424 W/m 12,9 km/h (3 Bft)
07.03.2014 12:34 12,6 C 11,7 C 63 % 1024,9 hPa 0,0 l/m 2 min 0 min 0,9 UV-I 466 W/m 0,0 km/h (0 Bft)
07.03.2014 12:36 12,8 C 11,7 C 63 % 1024,9 hPa 0,0 l/m 2 min 0 min 0,9 UV-I 446 W/m 2,6 km/h (1 Bft)
07.03.2014 12:38 12,9 C 11,7 C 62 % 1024,9 hPa 0,0 l/m 2 min 0 min 0,9 UV-I 490 W/m 7,7 km/h (2 Bft)
07.03.2014 12:40 13,1 C 11,7 C 62 % 1024,9 hPa 0,0 l/m 2 min 0 min 0,9 UV-I 462 W/m 10,3 km/h (2 Bft)
07.03.2014 12:42 13,2 C 11,7 C 62 % 1024,9 hPa 0,0 l/m 2 min 0 min 1,0 UV-I 482 W/m 15,4 km/h (3 Bft)
07.03.2014 12:44 13,1 C 11,7 C 60 % 1024,9 hPa 0,0 l/m 2 min 0 min 1,0 UV-I 457 W/m 12,9 km/h (3 Bft)
07.03.2014 12:46 12,9 C 11,7 C 62 % 1024,9 hPa 0,0 l/m 2 min 0 min 1,2 UV-I 473 W/m 15,4 km/h (3 Bft)
07.03.2014 12:48 13,0 C 11,7 C 61 % 1024,9 hPa 0,0 l/m 2 min 0 min 1,3 UV-I 531 W/m 15,4 km/h (3 Bft)
07.03.2014 12:50 13,2 C 11,7 C 61 % 1024,9 hPa 0,0 l/m 2 min 0 min 1,3 UV-I 527 W/m 7,7 km/h (2 Bft)
07.03.2014 12:52 13,3 C 12,2 C 61 % 1024,9 hPa 0,0 l/m 2 min 0 min 1,3 UV-I 524 W/m 7,7 km/h (2 Bft)
07.03.2014 12:54 13,4 C 12,2 C 61 % 1024,9 hPa 0,0 l/m 2 min 0 min 1,2 UV-I 439 W/m 18,0 km/h (3 Bft)
07.03.2014 12:56 13,3 C 12,2 C 61 % 1024,8 hPa 0,0 l/m 2 min 0 min 1,2 UV-I 452 W/m 10,3 km/h (2 Bft)
07.03.2014 12:58 13,4 C 12,2 C 61 % 1024,8 hPa 0,0 l/m 2 min 0 min 1,3 UV-I 504 W/m 12,9 km/h (3 Bft)
07.03.2014 13:00 13,4 C 12,2 C 61 % 1024,8 hPa 0,0 l/m 2 min 0 min 1,3 UV-I 512 W/m 12,9 km/h (3 Bft)
07.03.2014 13:02 13,4 C 12,2 C 60 % 1024,7 hPa 0,0 l/m 2 min 0 min 1,2 UV-I 476 W/m 10,3 km/h (2 Bft)
07.03.2014 13:04 13,4 C 11,7 C 60 % 1024,8 hPa 0,0 l/m 2 min 0 min 1,2 UV-I 438 W/m 2,6 km/h (1 Bft)
07.03.2014 13:06 13,4 C 11,7 C 60 % 1024,7 hPa 0,0 l/m 2 min 0 min 1,1 UV-I 394 W/m 7,7 km/h (2 Bft)
07.03.2014 13:08 13,4 C 11,7 C 60 % 1024,7 hPa 0,0 l/m 2 min 0 min 1,1 UV-I 388 W/m 5,1 km/h (1 Bft)
07.03.2014 13:10 13,5 C 11,7 C 60 % 1024,6 hPa 0,0 l/m 2 min 0 min 1,1 UV-I 411 W/m 18,0 km/h (3 Bft)
07.03.2014 13:12 13,4 C 11,7 C 61 % 1024,6 hPa 0,0 l/m 2 min 0 min 1,1 UV-I 434 W/m 12,9 km/h (3 Bft)
07.03.2014 13:14 13,6 C 12,2 C 61 % 1024,6 hPa 0,0 l/m 2 min 0 min 1,2 UV-I 499 W/m 10,3 km/h (2 Bft)
07.03.2014 13:16 13,7 C 12,2 C 60 % 1024,7 hPa 0,0 l/m 2 min 0 min 1,3 UV-I 512 W/m 7,7 km/h (2 Bft)
07.03.2014 13:18 13,8 C 12,2 C 61 % 1024,7 hPa 0,0 l/m 2 min 0 min 1,2 UV-I 482 W/m 7,7 km/h (2 Bft)
07.03.2014 13:20 14,0 C 12,8 C 59 % 1024,6 hPa 0,0 l/m 2 min 0 min 1,2 UV-I 487 W/m 10,3 km/h (2 Bft)
07.03.2014 13:22 14,0 C 12,8 C 60 % 1024,6 hPa 0,0 l/m 2 min 0 min 1,3 UV-I 499 W/m 10,3 km/h (2 Bft)
07.03.2014 13:24 14,1 C 12,8 C 60 % 1024,5 hPa 0,0 l/m 2 min 0 min 1,3 UV-I 494 W/m 10,3 km/h (2 Bft)
07.03.2014 13:26 14,2 C 12,8 C 59 % 1024,4 hPa 0,0 l/m 2 min 0 min 1,3 UV-I 508 W/m 12,9 km/h (3 Bft)
07.03.2014 13:28 14,2 C 12,8 C 59 % 1024,4 hPa 0,0 l/m 2 min 0 min 1,3 UV-I 501 W/m 10,3 km/h (2 Bft)
07.03.2014 13:30 14,2 C 12,8 C 57 % 1024,5 hPa 0,0 l/m 2 min 0 min 1,3 UV-I 504 W/m 23,2 km/h (4 Bft)
07.03.2014 13:32 14,2 C 12,8 C 55 % 1024,5 hPa 0,0 l/m 2 min 0 min 1,3 UV-I 503 W/m 23,2 km/h (4 Bft)
07.03.2014 13:34 14,2 C 12,8 C 55 % 1024,5 hPa 0,0 l/m 2 min 0 min 1,2 UV-I 476 W/m 18,0 km/h (3 Bft)
07.03.2014 13:36 14,2 C 12,8 C 55 % 1024,6 hPa 0,0 l/m 2 min 0 min 1,2 UV-I 469 W/m 2,6 km/h (1 Bft)
07.03.2014 13:38 14,2 C 13,3 C 55 % 1024,5 hPa 0,0 l/m 2 min 0 min 1,2 UV-I 510 W/m 10,3 km/h (2 Bft)
07.03.2014 13:40 14,3 C 13,3 C 55 % 1024,6 hPa 0,0 l/m 2 min 0 min 1,2 UV-I 487 W/m 7,7 km/h (2 Bft)
07.03.2014 13:42 14,4 C 13,3 C 56 % 1024,5 hPa 0,0 l/m 2 min 0 min 1,1 UV-I 476 W/m 0,0 km/h (0 Bft)
07.03.2014 13:44 14,4 C 13,3 C 56 % 1024,5 hPa 0,0 l/m 2 min 0 min 1,1 UV-I 408 W/m 15,4 km/h (3 Bft)
07.03.2014 13:46 14,4 C 13,3 C 55 % 1024,5 hPa 0,0 l/m 2 min 0 min 1,1 UV-I 461 W/m 12,9 km/h (3 Bft)
07.03.2014 13:48 14,3 C 13,3 C 56 % 1024,5 hPa 0,0 l/m 2 min 0 min 1,0 UV-I 438 W/m 10,3 km/h (2 Bft)
07.03.2014 13:50 14,4 C 13,3 C 56 % 1024,4 hPa 0,0 l/m 2 min 0 min 1,0 UV-I 410 W/m 10,3 km/h (2 Bft)
07.03.2014 13:52 14,4 C 13,3 C 56 % 1024,4 hPa 0,0 l/m 2 min 0 min 1,0 UV-I 462 W/m 7,7 km/h (2 Bft)
07.03.2014 13:54 14,4 C 13,3 C 55 % 1024,5 hPa 0,0 l/m 2 min 0 min 1,0 UV-I 431 W/m 10,3 km/h (2 Bft)
07.03.2014 13:56 14,2 C 13,3 C 55 % 1024,6 hPa 0,0 l/m 2 min 0 min 0,9 UV-I 381 W/m 10,3 km/h (2 Bft)
07.03.2014 13:58 14,2 C 13,3 C 56 % 1024,6 hPa 0,0 l/m 2 min 0 min 0,8 UV-I 350 W/m 7,7 km/h (2 Bft)
07.03.2014 14:00 14,2 C 13,3 C 57 % 1024,6 hPa 0,0 l/m 2 min 0 min 0,8 UV-I 357 W/m 7,7 km/h (2 Bft)
07.03.2014 14:02 14,2 C 13,3 C 57 % 1024,6 hPa 0,0 l/m 2 min 0 min 0,8 UV-I 374 W/m 2,6 km/h (1 Bft)
07.03.2014 14:04 14,2 C 13,3 C 57 % 1024,5 hPa 0,0 l/m 2 min 0 min 0,8 UV-I 371 W/m 10,3 km/h (2 Bft)
07.03.2014 14:06 14,2 C 13,3 C 58 % 1024,6 hPa 0,0 l/m 2 min 0 min 0,6 UV-I 290 W/m 15,4 km/h (3 Bft)
07.03.2014 14:08 14,2 C 13,3 C 57 % 1024,7 hPa 0,0 l/m 0 min 0 min 0,6 UV-I 274 W/m 7,7 km/h (2 Bft)
07.03.2014 14:10 13,9 C 13,3 C 56 % 1024,7 hPa 0,0 l/m 2 min 0 min 0,7 UV-I 360 W/m 7,7 km/h (2 Bft)
07.03.2014 14:12 13,9 C 13,3 C 58 % 1024,7 hPa 0,0 l/m 2 min 0 min 0,7 UV-I 387 W/m 15,4 km/h (3 Bft)
07.03.2014 14:14 13,9 C 12,8 C 57 % 1024,6 hPa 0,0 l/m 2 min 0 min 0,7 UV-I 322 W/m 7,7 km/h (2 Bft)
07.03.2014 14:16 13,9 C 13,3 C 57 % 1024,6 hPa 0,0 l/m 2 min 0 min 0,6 UV-I 338 W/m 2,6 km/h (1 Bft)
07.03.2014 14:18 13,9 C 13,3 C 57 % 1024,6 hPa 0,0 l/m 2 min 0 min 0,6 UV-I 311 W/m 7,7 km/h (2 Bft)
07.03.2014 14:20 13,9 C 13,3 C 57 % 1024,5 hPa 0,0 l/m 2 min 0 min 0,6 UV-I 285 W/m 10,3 km/h (2 Bft)
07.03.2014 14:22 13,8 C 12,8 C 58 % 1024,5 hPa 0,0 l/m 2 min 0 min 0,5 UV-I 288 W/m 0,0 km/h (0 Bft)
07.03.2014 14:24 13,9 C 12,8 C 59 % 1024,6 hPa 0,0 l/m 2 min 0 min 0,5 UV-I 279 W/m 7,7 km/h (2 Bft)
07.03.2014 14:26 13,9 C 12,8 C 57 % 1024,6 hPa 0,0 l/m 0 min 0 min 0,5 UV-I 251 W/m 15,4 km/h (3 Bft)
07.03.2014 14:28 13,8 C 12,8 C 58 % 1024,7 hPa 0,0 l/m 2 min 0 min 0,5 UV-I 288 W/m 2,6 km/h (1 Bft)
07.03.2014 14:30 13,9 C 12,8 C 59 % 1024,6 hPa 0,0 l/m 2 min 0 min 0,5 UV-I 276 W/m 2,6 km/h (1 Bft)
07.03.2014 14:32 13,9 C 12,8 C 59 % 1024,5 hPa 0,0 l/m 0 min 0 min 0,5 UV-I 267 W/m 5,1 km/h (1 Bft)
07.03.2014 14:34 13,9 C 12,8 C 59 % 1024,4 hPa 0,0 l/m 0 min 0 min 0,5 UV-I 267 W/m 0,0 km/h (0 Bft)
07.03.2014 14:36 13,9 C 12,8 C 58 % 1024,4 hPa 0,0 l/m 0 min 0 min 0,5 UV-I 265 W/m 5,1 km/h (1 Bft)
07.03.2014 14:38 13,9 C 12,8 C 58 % 1024,5 hPa 0,0 l/m 2 min 0 min 0,6 UV-I 348 W/m 5,1 km/h (1 Bft)
07.03.2014 14:40 13,9 C 12,8 C 59 % 1024,5 hPa 0,0 l/m 2 min 0 min 0,6 UV-I 329 W/m 7,7 km/h (2 Bft)
07.03.2014 14:42 13,9 C 12,8 C 58 % 1024,4 hPa 0,0 l/m 2 min 0 min 0,6 UV-I 323 W/m 2,6 km/h (1 Bft)
07.03.2014 14:44 14,1 C 12,8 C 59 % 1024,4 hPa 0,0 l/m 2 min 0 min 0,5 UV-I 279 W/m 10,3 km/h (2 Bft)
07.03.2014 14:46 14,2 C 13,3 C 59 % 1024,6 hPa 0,0 l/m 2 min 0 min 0,5 UV-I 350 W/m 2,6 km/h (1 Bft)
07.03.2014 14:48 14,2 C 13,3 C 58 % 1024,6 hPa 0,0 l/m 2 min 0 min 0,6 UV-I 381 W/m 5,1 km/h (1 Bft)
07.03.2014 14:50 14,2 C 13,3 C 57 % 1024,6 hPa 0,0 l/m 2 min 0 min 0,6 UV-I 434 W/m 10,3 km/h (2 Bft)
07.03.2014 14:52 14,2 C 13,3 C 58 % 1024,5 hPa 0,0 l/m 2 min 0 min 0,6 UV-I 415 W/m 12,9 km/h (3 Bft)
07.03.2014 14:54 14,2 C 13,3 C 56 % 1024,4 hPa 0,0 l/m 2 min 0 min 0,0 UV-I 288 W/m 10,3 km/h (2 Bft)
07.03.2014 14:56 14,2 C 13,3 C 56 % 1024,3 hPa 0,0 l/m 0 min 0 min 0,0 UV-I 248 W/m 10,3 km/h (2 Bft)
07.03.2014 14:58 14,2 C 13,3 C 56 % 1024,3 hPa 0,0 l/m 0 min 0 min 0,0 UV-I 220 W/m 2,6 km/h (1 Bft)
07.03.2014 15:00 14,2 C 13,3 C 56 % 1024,3 hPa 0,0 l/m 0 min 0 min 0,0 UV-I 204 W/m 7,7 km/h (2 Bft)
07.03.2014 15:02 14,2 C 13,3 C 56 % 1024,3 hPa 0,0 l/m 2 min 0 min 0,0 UV-I 248 W/m 5,1 km/h (1 Bft)
07.03.2014 15:04 14,2 C 12,8 C 56 % 1024,2 hPa 0,0 l/m 0 min 0 min 0,0 UV-I 209 W/m 5,1 km/h (1 Bft)
07.03.2014 15:06 14,1 C 12,8 C 56 % 1024,2 hPa 0,0 l/m 0 min 0 min 0,0 UV-I 195 W/m 2,6 km/h (1 Bft)
07.03.2014 15:08 13,9 C 12,8 C 56 % 1024,3 hPa 0,0 l/m 0 min 0 min 0,0 UV-I 202 W/m 2,6 km/h (1 Bft)
07.03.2014 15:10 14,0 C 13,3 C 57 % 1024,3 hPa 0,0 l/m 2 min 0 min 0,0 UV-I 362 W/m 0,0 km/h (0 Bft)
07.03.2014 15:12 14,2 C 13,3 C 57 % 1024,3 hPa 0,0 l/m 2 min 0 min 0,0 UV-I 355 W/m 2,6 km/h (1 Bft)
07.03.2014 15:14 14,2 C 13,3 C 56 % 1024,3 hPa 0,0 l/m 0 min 0 min 0,0 UV-I 211 W/m 2,6 km/h (1 Bft)
07.03.2014 15:16 14,2 C 13,3 C 56 % 1024,3 hPa 0,0 l/m 0 min 0 min 0,0 UV-I 185 W/m 2,6 km/h (1 Bft)
07.03.2014 15:18 14,1 C 12,8 C 56 % 1024,3 hPa 0,0 l/m 0 min 0 min 0,0 UV-I 162 W/m 2,6 km/h (1 Bft)
07.03.2014 15:20 14,0 C 12,8 C 56 % 1024,2 hPa 0,0 l/m 0 min 0 min 0,0 UV-I 148 W/m 7,7 km/h (2 Bft)
07.03.2014 15:22 13,9 C 12,8 C 56 % 1024,2 hPa 0,0 l/m 0 min 0 min 0,0 UV-I 135 W/m 5,1 km/h (1 Bft)
07.03.2014 15:24 13,9 C 12,8 C 57 % 1024,2 hPa 0,0 l/m 0 min 0 min 0,0 UV-I 120 W/m 0,0 km/h (0 Bft)
07.03.2014 15:26 13,9 C 12,8 C 58 % 1024,3 hPa 0,0 l/m 0 min 0 min 0,0 UV-I 113 W/m 2,6 km/h (1 Bft)
07.03.2014 15:28 13,8 C 12,2 C 57 % 1024,2 hPa 0,0 l/m 0 min 0 min 0,0 UV-I 109 W/m 5,1 km/h (1 Bft)
07.03.2014 15:30 13,8 C 12,2 C 57 % 1024,2 hPa 0,0 l/m 0 min 0 min 0,0 UV-I 111 W/m 5,1 km/h (1 Bft)
07.03.2014 15:32 13,7 C 12,2 C 57 % 1024,2 hPa 0,0 l/m 0 min 0 min 0,0 UV-I 118 W/m 2,6 km/h (1 Bft)
07.03.2014 15:34 13,7 C 12,2 C 57 % 1024,2 hPa 0,0 l/m 0 min 0 min 0,0 UV-I 127 W/m 0,0 km/h (0 Bft)
07.03.2014 15:36 13,7 C 12,2 C 58 % 1024,3 hPa 0,0 l/m 0 min 0 min 0,0 UV-I 135 W/m 7,7 km/h (2 Bft)
07.03.2014 15:38 13,7 C 12,2 C 59 % 1024,4 hPa 0,0 l/m 0 min 0 min 0,0 UV-I 130 W/m 2,6 km/h (1 Bft)
07.03.2014 15:40 13,7 C 12,2 C 59 % 1024,4 hPa 0,0 l/m 0 min 0 min 0,0 UV-I 121 W/m 7,7 km/h (2 Bft)
07.03.2014 15:42 13,7 C 12,2 C 59 % 1024,5 hPa 0,0 l/m 0 min 0 min 0,0 UV-I 113 W/m 7,7 km/h (2 Bft)
07.03.2014 15:44 13,7 C 12,2 C 58 % 1024,4 hPa 0,0 l/m 0 min 0 min 0,0 UV-I 105 W/m 0,0 km/h (0 Bft)
07.03.2014 15:46 13,6 C 12,2 C 58 % 1024,4 hPa 0,0 l/m 0 min 0 min 0,0 UV-I 98 W/m 7,7 km/h (2 Bft)
07.03.2014 15:48 13,6 C 12,2 C 58 % 1024,5 hPa 0,0 l/m 0 min 0 min 0,0 UV-I 86 W/m 5,1 km/h (1 Bft)
07.03.2014 15:50 13,6 C 11,7 C 59 % 1024,5 hPa 0,0 l/m 0 min 0 min 0,0 UV-I 81 W/m 0,0 km/h (0 Bft)
07.03.2014 15:52 13,6 C 11,7 C 59 % 1024,4 hPa 0,0 l/m 0 min 0 min 0,0 UV-I 83 W/m 5,1 km/h (1 Bft)
07.03.2014 15:54 13,6 C 11,7 C 59 % 1024,4 hPa 0,0 l/m 0 min 0 min 0,0 UV-I 88 W/m 5,1 km/h (1 Bft)
07.03.2014 15:56 13,6 C 11,7 C 59 % 1024,4 hPa 0,0 l/m 0 min 0 min 0,0 UV-I 93 W/m 7,7 km/h (2 Bft)
07.03.2014 15:58 13,5 C 11,7 C 59 % 1024,4 hPa 0,0 l/m 0 min 0 min 0,0 UV-I 93 W/m 0,0 km/h (0 Bft)
07.03.2014 16:00 13,5 C 11,7 C 60 % 1024,5 hPa 0,0 l/m 0 min 0 min 0,0 UV-I 90 W/m 0,0 km/h (0 Bft)
07.03.2014 16:02 13,4 C 11,7 C 61 % 1024,4 hPa 0,0 l/m 0 min 0 min 0,0 UV-I 84 W/m 0,0 km/h (0 Bft)
07.03.2014 16:04 13,4 C 11,7 C 60 % 1024,4 hPa 0,0 l/m 0 min 0 min 0,0 UV-I 74 W/m 5,1 km/h (1 Bft)
07.03.2014 16:06 13,3 C 11,7 C 59 % 1024,4 hPa 0,0 l/m 0 min 0 min 0,0 UV-I 65 W/m 0,0 km/h (0 Bft)
07.03.2014 16:08 13,4 C 11,7 C 59 % 1024,4 hPa 0,0 l/m 0 min 0 min 0,0 UV-I 58 W/m 0,0 km/h (0 Bft)
07.03.2014 16:10 13,3 C 11,1 C 60 % 1024,4 hPa 0,0 l/m 0 min 0 min 0,0 UV-I 54 W/m 0,0 km/h (0 Bft)
07.03.2014 16:12 13,3 C 11,1 C 60 % 1024,4 hPa 0,0 l/m 0 min 0 min 0,0 UV-I 54 W/m 0,0 km/h (0 Bft)
07.03.2014 16:14 13,2 C 11,1 C 60 % 1024,5 hPa 0,0 l/m 0 min 0 min 0,0 UV-I 56 W/m 0,0 km/h (0 Bft)
07.03.2014 16:16 13,2 C 11,1 C 60 % 1024,5 hPa 0,0 l/m 0 min 0 min 0,0 UV-I 62 W/m 10,3 km/h (2 Bft)
07.03.2014 16:18 13,2 C 11,1 C 60 % 1024,5 hPa 0,0 l/m 0 min 0 min 0,0 UV-I 67 W/m 0,0 km/h (0 Bft)
07.03.2014 16:20 13,1 C 11,1 C 61 % 1024,5 hPa 0,0 l/m 0 min 0 min 0,0 UV-I 69 W/m 0,0 km/h (0 Bft)
07.03.2014 16:22 13,1 C 11,1 C 60 % 1024,5 hPa 0,0 l/m 0 min 0 min 0,0 UV-I 69 W/m 7,7 km/h (2 Bft)
07.03.2014 16:24 13,1 C 11,1 C 61 % 1024,5 hPa 0,0 l/m 0 min 0 min 0,0 UV-I 67 W/m 0,0 km/h (0 Bft)
07.03.2014 16:26 13,1 C 11,1 C 61 % 1024,6 hPa 0,0 l/m 0 min 0 min 0,0 UV-I 67 W/m 0,0 km/h (0 Bft)
07.03.2014 16:28 13,1 C 11,1 C 61 % 1024,6 hPa 0,0 l/m 0 min 0 min 0,0 UV-I 67 W/m 0,0 km/h (0 Bft)
07.03.2014 16:30 13,1 C 11,1 C 61 % 1024,5 hPa 0,0 l/m 0 min 0 min 0,0 UV-I 67 W/m 0,0 km/h (0 Bft)
07.03.2014 16:32 13,1 C 11,1 C 62 % 1024,5 hPa 0,0 l/m 0 min 0 min 0,0 UV-I 65 W/m 2,6 km/h (1 Bft)
07.03.2014 16:34 13,0 C 11,1 C 62 % 1024,3 hPa 0,0 l/m 0 min 0 min 0,0 UV-I 63 W/m 0,0 km/h (0 Bft)
07.03.2014 16:36 13,0 C 11,1 C 60 % 1024,3 hPa 0,0 l/m 0 min 0 min 0,0 UV-I 62 W/m 2,6 km/h (1 Bft)
07.03.2014 16:38 13,1 C 11,1 C 60 % 1024,2 hPa 0,0 l/m 0 min 0 min 0,0 UV-I 60 W/m 7,7 km/h (2 Bft)
07.03.2014 16:40 13,0 C 11,1 C 61 % 1024,2 hPa 0,0 l/m 0 min 0 min 0,0 UV-I 56 W/m 0,0 km/h (0 Bft)
07.03.2014 16:42 12,9 C 11,1 C 62 % 1024,2 hPa 0,0 l/m 0 min 0 min 0,0 UV-I 53 W/m 0,0 km/h (0 Bft)
07.03.2014 16:44 12,9 C 10,6 C 61 % 1024,1 hPa 0,0 l/m 0 min 0 min 0,0 UV-I 51 W/m 0,0 km/h (0 Bft)
07.03.2014 16:46 12,9 C 10,6 C 61 % 1024,1 hPa 0,0 l/m 0 min 0 min 0,0 UV-I 42 W/m 0,0 km/h (0 Bft)
07.03.2014 16:48 12,9 C 10,6 C 60 % 1024,1 hPa 0,0 l/m 0 min 0 min 0,0 UV-I 39 W/m 2,6 km/h (1 Bft)
07.03.2014 16:50 12,9 C 10,6 C 60 % 1024,1 hPa 0,0 l/m 0 min 0 min 0,0 UV-I 39 W/m 5,1 km/h (1 Bft)
07.03.2014 16:52 12,9 C 10,6 C 60 % 1024,1 hPa 0,0 l/m 0 min 0 min 0,0 UV-I 42 W/m 0,0 km/h (0 Bft)
07.03.2014 16:54 12,8 C 10,6 C 60 % 1024,1 hPa 0,0 l/m 0 min 0 min 0,0 UV-I 44 W/m 2,6 km/h (1 Bft)
07.03.2014 16:56 12,8 C 10,6 C 59 % 1024,1 hPa 0,0 l/m 0 min 0 min 0,0 UV-I 44 W/m 7,7 km/h (2 Bft)
07.03.2014 16:58 12,8 C 10,6 C 60 % 1024,1 hPa 0,0 l/m 0 min 0 min 0,0 UV-I 42 W/m 0,0 km/h (0 Bft)
07.03.2014 17:00 12,8 C 10,6 C 59 % 1024,0 hPa 0,0 l/m 0 min 0 min 0,0 UV-I 40 W/m 2,6 km/h (1 Bft)
07.03.2014 17:02 12,8 C 10,6 C 60 % 1024,0 hPa 0,0 l/m 0 min 0 min 0,0 UV-I 40 W/m 0,0 km/h (0 Bft)
07.03.2014 17:04 12,8 C 10,6 C 59 % 1024,0 hPa 0,0 l/m 0 min 0 min 0,0 UV-I 40 W/m 5,1 km/h (1 Bft)
07.03.2014 17:06 12,8 C 10,6 C 59 % 1024,1 hPa 0,0 l/m 0 min 0 min 0,0 UV-I 40 W/m 0,0 km/h (0 Bft)
07.03.2014 17:08 12,8 C 10,6 C 59 % 1024,1 hPa 0,0 l/m 0 min 0 min 0,0 UV-I 37 W/m 0,0 km/h (0 Bft)
07.03.2014 17:10 12,8 C 10,0 C 60 % 1024,4 hPa 0,0 l/m 0 min 0 min 0,0 UV-I 33 W/m 0,0 km/h (0 Bft)
07.03.2014 17:12 12,8 C 10,0 C 60 % 1024,3 hPa 0,0 l/m 0 min 0 min 0,0 UV-I 30 W/m 0,0 km/h (0 Bft)
07.03.2014 17:14 12,8 C 10,0 C 60 % 1024,2 hPa 0,0 l/m 0 min 0 min 0,0 UV-I 28 W/m 0,0 km/h (0 Bft)
07.03.2014 17:16 12,7 C 10,0 C 60 % 1024,2 hPa 0,0 l/m 0 min 0 min 0,0 UV-I 30 W/m 0,0 km/h (0 Bft)
07.03.2014 17:18 12,7 C 10,0 C 60 % 1024,1 hPa 0,0 l/m 0 min 0 min 0,0 UV-I 30 W/m 0,0 km/h (0 Bft)
07.03.2014 17:20 12,7 C 10,0 C 61 % 1024,2 hPa 0,0 l/m 0 min 0 min 0,0 UV-I 35 W/m 0,0 km/h (0 Bft)
07.03.2014 17:22 12,7 C 10,0 C 61 % 1024,4 hPa 0,0 l/m 0 min 0 min 0,0 UV-I 37 W/m 0,0 km/h (0 Bft)
07.03.2014 17:24 12,7 C 10,0 C 61 % 1024,6 hPa 0,0 l/m 0 min 0 min 0,0 UV-I 37 W/m 5,1 km/h (1 Bft)
07.03.2014 17:26 12,6 C 10,0 C 61 % 1024,4 hPa 0,0 l/m 0 min 0 min 0,0 UV-I 39 W/m 2,6 km/h (1 Bft)
07.03.2014 17:28 12,6 C 10,0 C 61 % 1024,1 hPa 0,0 l/m 0 min 0 min 0,0 UV-I 42 W/m 0,0 km/h (0 Bft)
07.03.2014 17:30 12,6 C 10,0 C 61 % 1024,4 hPa 0,0 l/m 0 min 0 min 0,0 UV-I 42 W/m 0,0 km/h (0 Bft)
07.03.2014 17:32 12,6 C 10,0 C 62 % 1024,4 hPa 0,0 l/m 0 min 0 min 0,0 UV-I 37 W/m 0,0 km/h (0 Bft)
07.03.2014 17:34 12,6 C 10,0 C 61 % 1024,7 hPa 0,0 l/m 0 min 0 min 0,0 UV-I 35 W/m 2,6 km/h (1 Bft)
07.03.2014 17:36 12,6 C 10,0 C 62 % 1024,8 hPa 0,0 l/m 0 min 0 min 0,0 UV-I 35 W/m 0,0 km/h (0 Bft)
07.03.2014 17:38 12,6 C 10,0 C 62 % 1024,5 hPa 0,0 l/m 0 min 0 min 0,0 UV-I 35 W/m 0,0 km/h (0 Bft)
07.03.2014 17:40 12,5 C 10,0 C 62 % 1024,5 hPa 0,0 l/m 0 min 0 min 0,0 UV-I 35 W/m 0,0 km/h (0 Bft)
07.03.2014 17:42 12,5 C 10,0 C 62 % 1024,5 hPa 0,0 l/m 0 min 0 min 0,0 UV-I 33 W/m 2,6 km/h (1 Bft)
07.03.2014 17:44 12,5 C 10,0 C 63 % 1024,7 hPa 0,0 l/m 0 min 0 min 0,0 UV-I 32 W/m 5,1 km/h (1 Bft)
07.03.2014 17:46 12,4 C 10,0 C 63 % 1024,7 hPa 0,0 l/m 0 min 0 min 0,0 UV-I 30 W/m 5,1 km/h (1 Bft)
07.03.2014 17:48 12,4 C 10,0 C 64 % 1024,6 hPa 0,0 l/m 0 min 0 min 0,0 UV-I 28 W/m 7,7 km/h (2 Bft)
07.03.2014 17:50 12,3 C 10,0 C 64 % 1024,7 hPa 0,0 l/m 0 min 0 min 0,0 UV-I 25 W/m 0,0 km/h (0 Bft)
07.03.2014 17:52 12,2 C 10,0 C 64 % 1024,7 hPa 0,0 l/m 0 min 0 min 0,0 UV-I 23 W/m 0,0 km/h (0 Bft)
07.03.2014 17:54 12,2 C 9,4 C 64 % 1024,6 hPa 0,0 l/m 0 min 0 min 0,0 UV-I 21 W/m 0,0 km/h (0 Bft)
07.03.2014 17:56 12,1 C 9,4 C 64 % 1024,6 hPa 0,0 l/m 0 min 0 min 0,0 UV-I 21 W/m 0,0 km/h (0 Bft)
07.03.2014 17:58 12,1 C 9,4 C 65 % 1024,5 hPa 0,0 l/m 0 min 0 min 0,0 UV-I 21 W/m 0,0 km/h (0 Bft)
07.03.2014 18:00 12,0 C 9,4 C 65 % 1024,3 hPa 0,0 l/m 0 min 0 min 0,0 UV-I 19 W/m 2,6 km/h (1 Bft)
07.03.2014 18:02 11,9 C 9,4 C 65 % 1024,2 hPa 0,0 l/m 0 min 0 min 0,0 UV-I 18 W/m 7,7 km/h (2 Bft)
07.03.2014 18:04 11,9 C 9,4 C 65 % 1024,2 hPa 0,0 l/m 0 min 0 min 0,0 UV-I 16 W/m 0,0 km/h (0 Bft)
07.03.2014 18:06 11,8 C 8,9 C 65 % 1024,2 hPa 0,0 l/m 0 min 0 min 0,0 UV-I 14 W/m 2,6 km/h (1 Bft)
07.03.2014 18:08 11,8 C 8,9 C 65 % 1024,2 hPa 0,0 l/m 0 min 0 min 0,0 UV-I 14 W/m 0,0 km/h (0 Bft)
07.03.2014 18:10 11,8 C 8,9 C 65 % 1024,3 hPa 0,0 l/m 0 min 0 min 0,0 UV-I 14 W/m 0,0 km/h (0 Bft)
07.03.2014 18:12 11,8 C 8,9 C 65 % 1024,6 hPa 0,0 l/m 0 min 0 min 0,0 UV-I 12 W/m 0,0 km/h (0 Bft)
07.03.2014 18:14 11,7 C 8,9 C 65 % 1024,7 hPa 0,0 l/m 0 min 0 min 0,0 UV-I 11 W/m 0,0 km/h (0 Bft)
07.03.2014 18:16 11,7 C 8,9 C 65 % 1024,7 hPa 0,0 l/m 0 min 0 min 0,0 UV-I 9 W/m 0,0 km/h (0 Bft)
07.03.2014 18:18 11,7 C 8,9 C 66 % 1024,7 hPa 0,0 l/m 0 min 0 min 0,0 UV-I 9 W/m 0,0 km/h (0 Bft)
07.03.2014 18:20 11,6 C 8,9 C 66 % 1024,7 hPa 0,0 l/m 0 min 0 min 0,0 UV-I 9 W/m 0,0 km/h (0 Bft)
07.03.2014 18:22 11,6 C 8,9 C 66 % 1024,6 hPa 0,0 l/m 0 min 0 min 0,0 UV-I 7 W/m 0,0 km/h (0 Bft)
07.03.2014 18:24 11,4 C 8,3 C 67 % 1024,4 hPa 0,0 l/m 0 min 0 min 0,0 UV-I 7 W/m 0,0 km/h (0 Bft)
07.03.2014 18:26 11,3 C 8,3 C 67 % 1024,4 hPa 0,0 l/m 0 min 0 min 0,0 UV-I 7 W/m 0,0 km/h (0 Bft)
07.03.2014 18:28 11,2 C 8,3 C 67 % 1024,4 hPa 0,0 l/m 0 min 0 min 0,0 UV-I 7 W/m 0,0 km/h (0 Bft)
07.03.2014 18:30 11,2 C 8,3 C 67 % 1024,4 hPa 0,0 l/m 0 min 0 min 0,0 UV-I 7 W/m 0,0 km/h (0 Bft)
07.03.2014 18:32 11,2 C 7,8 C 67 % 1024,5 hPa 0,0 l/m 0 min 0 min 0,0 UV-I 5 W/m 0,0 km/h (0 Bft)
07.03.2014 18:34 11,2 C 7,8 C 67 % 1024,6 hPa 0,0 l/m 0 min 0 min 0,0 UV-I 0 W/m 0,0 km/h (0 Bft)
07.03.2014 18:36 11,1 C 7,8 C 67 % 1024,5 hPa 0,0 l/m 0 min 0 min 0,0 UV-I 0 W/m 0,0 km/h (0 Bft)
07.03.2014 18:38 11,1 C 7,8 C 67 % 1024,4 hPa 0,0 l/m 0 min 0 min 0,0 UV-I 0 W/m 0,0 km/h (0 Bft)
07.03.2014 18:40 10,9 C 7,8 C 68 % 1024,3 hPa 0,0 l/m 0 min 0 min 0,0 UV-I 0 W/m 0,0 km/h (0 Bft)
07.03.2014 18:42 10,8 C 7,2 C 68 % 1024,3 hPa 0,0 l/m 0 min 0 min 0,0 UV-I 0 W/m 0,0 km/h (0 Bft)
07.03.2014 18:44 10,7 C 7,2 C 69 % 1024,3 hPa 0,0 l/m 0 min 0 min 0,0 UV-I 0 W/m 0,0 km/h (0 Bft)
07.03.2014 18:46 10,7 C 7,2 C 69 % 1024,3 hPa 0,0 l/m 0 min 0 min 0,0 UV-I 0 W/m 0,0 km/h (0 Bft)
07.03.2014 18:48 10,6 C 7,2 C 69 % 1024,4 hPa 0,0 l/m 0 min 0 min 0,0 UV-I 0 W/m 0,0 km/h (0 Bft)
07.03.2014 18:50 10,6 C 7,2 C 69 % 1024,4 hPa 0,0 l/m 0 min 0 min 0,0 UV-I 0 W/m 0,0 km/h (0 Bft)
07.03.2014 18:52 10,5 C 7,2 C 70 % 1024,6 hPa 0,0 l/m 0 min 0 min 0,0 UV-I 0 W/m 0,0 km/h (0 Bft)
07.03.2014 18:54 10,4 C 7,2 C 70 % 1024,8 hPa 0,0 l/m 0 min 0 min 0,0 UV-I 0 W/m 0,0 km/h (0 Bft)
07.03.2014 18:56 10,2 C 6,7 C 71 % 1025,0 hPa 0,0 l/m 0 min 0 min 0,0 UV-I 0 W/m 0,0 km/h (0 Bft)
07.03.2014 18:58 10,1 C 6,7 C 71 % 1025,1 hPa 0,0 l/m 0 min 0 min 0,0 UV-I 0 W/m 0,0 km/h (0 Bft)
07.03.2014 19:00 10,1 C 6,7 C 71 % 1025,3 hPa 0,0 l/m 0 min 0 min 0,0 UV-I 0 W/m 0,0 km/h (0 Bft)
07.03.2014 19:02 10,0 C 6,7 C 71 % 1025,5 hPa 0,0 l/m 0 min 0 min 0,0 UV-I 0 W/m 0,0 km/h (0 Bft)
07.03.2014 19:04 10,1 C 6,7 C 71 % 1025,6 hPa 0,0 l/m 0 min 0 min 0,0 UV-I 0 W/m 0,0 km/h (0 Bft)
07.03.2014 19:06 10,1 C 6,7 C 71 % 1025,6 hPa 0,0 l/m 0 min 0 min 0,0 UV-I 0 W/m 0,0 km/h (0 Bft)
07.03.2014 19:08 10,1 C 6,7 C 71 % 1025,8 hPa 0,0 l/m 0 min 0 min 0,0 UV-I 0 W/m 0,0 km/h (0 Bft)
07.03.2014 19:10 10,1 C 7,2 C 72 % 1025,8 hPa 0,0 l/m 0 min 0 min 0,0 UV-I 0 W/m 0,0 km/h (0 Bft)
07.03.2014 19:12 10,1 C 7,2 C 72 % 1025,9 hPa 0,0 l/m 0 min 0 min 0,0 UV-I 0 W/m 0,0 km/h (0 Bft)
07.03.2014 19:14 10,1 C 7,2 C 72 % 1026,1 hPa 0,0 l/m 0 min 0 min 0,0 UV-I 0 W/m 0,0 km/h (0 Bft)
07.03.2014 19:16 10,2 C 7,2 C 72 % 1026,2 hPa 0,0 l/m 0 min 0 min 0,0 UV-I 0 W/m 0,0 km/h (0 Bft)
07.03.2014 19:18 10,2 C 7,2 C 72 % 1026,2 hPa 0,0 l/m 0 min 0 min 0,0 UV-I 0 W/m 0,0 km/h (0 Bft)
07.03.2014 19:20 10,2 C 7,2 C 72 % 1026,4 hPa 0,0 l/m 0 min 0 min 0,0 UV-I 0 W/m 0,0 km/h (0 Bft)
07.03.2014 19:22 10,2 C 7,8 C 72 % 1026,5 hPa 0,0 l/m 0 min 0 min 0,0 UV-I 0 W/m 0,0 km/h (0 Bft)
07.03.2014 19:24 10,3 C 7,8 C 71 % 1026,6 hPa 0,0 l/m 0 min 0 min 0,0 UV-I 0 W/m 0,0 km/h (0 Bft)
07.03.2014 19:26 10,3 C 7,8 C 71 % 1026,5 hPa 0,0 l/m 0 min 0 min 0,0 UV-I 0 W/m 0,0 km/h (0 Bft)
07.03.2014 19:28 10,4 C 7,8 C 71 % 1026,6 hPa 0,0 l/m 0 min 0 min 0,0 UV-I 0 W/m 0,0 km/h (0 Bft)
07.03.2014 19:30 10,4 C 7,8 C 71 % 1026,7 hPa 0,0 l/m 0 min 0 min 0,0 UV-I 0 W/m 0,0 km/h (0 Bft)
07.03.2014 19:32 10,4 C 7,8 C 71 % 1026,7 hPa 0,0 l/m 0 min 0 min 0,0 UV-I 0 W/m 0,0 km/h (0 Bft)
07.03.2014 19:34 10,5 C 8,3 C 71 % 1026,8 hPa 0,0 l/m 0 min 0 min 0,0 UV-I 0 W/m 0,0 km/h (0 Bft)
07.03.2014 19:36 10,6 C 8,3 C 71 % 1026,8 hPa 0,0 l/m 0 min 0 min 0,0 UV-I 0 W/m 0,0 km/h (0 Bft)
07.03.2014 19:38 10,6 C 8,3 C 71 % 1026,8 hPa 0,0 l/m 0 min 0 min 0,0 UV-I 0 W/m 0,0 km/h (0 Bft)
07.03.2014 19:40 10,6 C 8,3 C 71 % 1026,8 hPa 0,0 l/m 0 min 0 min 0,0 UV-I 0 W/m 0,0 km/h (0 Bft)
07.03.2014 19:42 10,7 C 8,3 C 70 % 1026,9 hPa 0,0 l/m 0 min 0 min 0,0 UV-I 0 W/m 0,0 km/h (0 Bft)
07.03.2014 19:44 10,7 C 8,3 C 70 % 1026,9 hPa 0,0 l/m 0 min 0 min 0,0 UV-I 0 W/m 0,0 km/h (0 Bft)
07.03.2014 19:46 10,7 C 8,3 C 70 % 1026,9 hPa 0,0 l/m 0 min 0 min 0,0 UV-I 0 W/m 2,6 km/h (1 Bft)
07.03.2014 19:48 10,8 C 8,3 C 70 % 1026,9 hPa 0,0 l/m 0 min 0 min 0,0 UV-I 0 W/m 12,9 km/h (3 Bft)
07.03.2014 19:50 10,8 C 8,9 C 69 % 1027,0 hPa 0,0 l/m 0 min 0 min 0,0 UV-I 0 W/m 0,0 km/h (0 Bft)
07.03.2014 19:52 10,9 C 8,9 C 69 % 1027,0 hPa 0,0 l/m 0 min 0 min 0,0 UV-I 0 W/m 0,0 km/h (0 Bft)
07.03.2014 19:54 10,9 C 8,9 C 69 % 1027,0 hPa 0,0 l/m 0 min 0 min 0,0 UV-I 0 W/m 0,0 km/h (0 Bft)
07.03.2014 19:56 10,9 C 8,3 C 69 % 1026,9 hPa 0,0 l/m 0 min 0 min 0,0 UV-I 0 W/m 5,1 km/h (1 Bft)
07.03.2014 19:58 10,9 C 8,3 C 69 % 1026,9 hPa 0,0 l/m 0 min 0 min 0,0 UV-I 0 W/m 0,0 km/h (0 Bft)
07.03.2014 20:00 10,9 C 8,3 C 69 % 1026,9 hPa 0,0 l/m 0 min 0 min 0,0 UV-I 0 W/m 0,0 km/h (0 Bft)
07.03.2014 20:02 10,9 C 8,3 C 69 % 1026,9 hPa 0,0 l/m 0 min 0 min 0,0 UV-I 0 W/m 0,0 km/h (0 Bft)
07.03.2014 20:04 10,9 C 8,3 C 69 % 1027,0 hPa 0,0 l/m 0 min 0 min 0,0 UV-I 0 W/m 0,0 km/h (0 Bft)
07.03.2014 20:06 10,9 C 8,3 C 69 % 1027,0 hPa 0,0 l/m 0 min 0 min 0,0 UV-I 0 W/m 0,0 km/h (0 Bft)
07.03.2014 20:08 10,8 C 8,3 C 69 % 1027,0 hPa 0,0 l/m 0 min 0 min 0,0 UV-I 0 W/m 0,0 km/h (0 Bft)
07.03.2014 20:10 10,8 C 8,3 C 69 % 1027,0 hPa 0,0 l/m 0 min 0 min 0,0 UV-I 0 W/m 0,0 km/h (0 Bft)
07.03.2014 20:12 10,8 C 8,3 C 69 % 1027,1 hPa 0,0 l/m 0 min 0 min 0,0 UV-I 0 W/m 0,0 km/h (0 Bft)
07.03.2014 20:14 10,8 C 8,3 C 69 % 1027,1 hPa 0,0 l/m 0 min 0 min 0,0 UV-I 0 W/m 0,0 km/h (0 Bft)
07.03.2014 20:16 10,8 C 8,3 C 69 % 1027,1 hPa 0,0 l/m 0 min 0 min 0,0 UV-I 0 W/m 0,0 km/h (0 Bft)
07.03.2014 20:18 10,8 C 8,3 C 70 % 1027,1 hPa 0,0 l/m 0 min 0 min 0,0 UV-I 0 W/m 0,0 km/h (0 Bft)
07.03.2014 20:20 10,8 C 8,3 C 69 % 1027,0 hPa 0,0 l/m 0 min 0 min 0,0 UV-I 0 W/m 0,0 km/h (0 Bft)
07.03.2014 20:22 10,8 C 8,3 C 70 % 1027,0 hPa 0,0 l/m 0 min 0 min 0,0 UV-I 0 W/m 0,0 km/h (0 Bft)
07.03.2014 20:24 10,8 C 8,3 C 69 % 1027,0 hPa 0,0 l/m 0 min 0 min 0,0 UV-I 0 W/m 0,0 km/h (0 Bft)
07.03.2014 20:26 10,8 C 8,3 C 69 % 1027,1 hPa 0,0 l/m 0 min 0 min 0,0 UV-I 0 W/m 0,0 km/h (0 Bft)
07.03.2014 20:28 10,8 C 7,8 C 70 % 1027,0 hPa 0,0 l/m 0 min 0 min 0,0 UV-I 0 W/m 0,0 km/h (0 Bft)
07.03.2014 20:30 10,7 C 7,8 C 70 % 1027,0 hPa 0,0 l/m 0 min 0 min 0,0 UV-I 0 W/m 0,0 km/h (0 Bft)
07.03.2014 20:32 10,7 C 7,8 C 70 % 1027,0 hPa 0,0 l/m 0 min 0 min 0,0 UV-I 0 W/m 0,0 km/h (0 Bft)
07.03.2014 20:34 10,6 C 7,8 C 70 % 1027,1 hPa 0,0 l/m 0 min 0 min 0,0 UV-I 0 W/m 0,0 km/h (0 Bft)
07.03.2014 20:36 10,5 C 7,2 C 70 % 1027,1 hPa 0,0 l/m 0 min 0 min 0,0 UV-I 0 W/m 0,0 km/h (0 Bft)
07.03.2014 20:38 10,4 C 7,2 C 71 % 1027,1 hPa 0,0 l/m 0 min 0 min 0,0 UV-I 0 W/m 0,0 km/h (0 Bft)
07.03.2014 20:40 10,3 C 7,2 C 71 % 1027,1 hPa 0,0 l/m 0 min 0 min 0,0 UV-I 0 W/m 0,0 km/h (0 Bft)
07.03.2014 20:42 10,2 C 7,2 C 71 % 1027,2 hPa 0,0 l/m 0 min 0 min 0,0 UV-I 0 W/m 0,0 km/h (0 Bft)
07.03.2014 20:44 10,2 C 6,7 C 71 % 1027,1 hPa 0,0 l/m 0 min 0 min 0,0 UV-I 0 W/m 0,0 km/h (0 Bft)
07.03.2014 20:46 10,1 C 6,7 C 71 % 1027,2 hPa 0,0 l/m 0 min 0 min 0,0 UV-I 0 W/m 0,0 km/h (0 Bft)
07.03.2014 20:48 10,0 C 6,7 C 72 % 1027,2 hPa 0,0 l/m 0 min 0 min 0,0 UV-I 0 W/m 0,0 km/h (0 Bft)
07.03.2014 20:50 9,9 C 6,7 C 72 % 1027,3 hPa 0,0 l/m 0 min 0 min 0,0 UV-I 0 W/m 0,0 km/h (0 Bft)
07.03.2014 20:52 9,9 C 6,7 C 72 % 1027,3 hPa 0,0 l/m 0 min 0 min 0,0 UV-I 0 W/m 0,0 km/h (0 Bft)
07.03.2014 20:54 9,9 C 6,7 C 73 % 1027,2 hPa 0,0 l/m 0 min 0 min 0,0 UV-I 0 W/m 0,0 km/h (0 Bft)
07.03.2014 20:56 9,9 C 6,7 C 73 % 1027,3 hPa 0,0 l/m 0 min 0 min 0,0 UV-I 0 W/m 0,0 km/h (0 Bft)
07.03.2014 20:58 9,8 C 6,7 C 73 % 1027,3 hPa 0,0 l/m 0 min 0 min 0,0 UV-I 0 W/m 0,0 km/h (0 Bft)
07.03.2014 21:00 9,8 C 6,7 C 73 % 1027,4 hPa 0,0 l/m 0 min 0 min 0,0 UV-I 0 W/m 0,0 km/h (0 Bft)
07.03.2014 21:02 9,7 C 6,1 C 73 % 1027,2 hPa 0,0 l/m 0 min 0 min 0,0 UV-I 0 W/m 0,0 km/h (0 Bft)
07.03.2014 21:04 9,6 C 6,1 C 73 % 1027,1 hPa 0,0 l/m 0 min 0 min 0,0 UV-I 0 W/m 0,0 km/h (0 Bft)
07.03.2014 21:06 9,4 C 6,1 C 74 % 1027,1 hPa 0,0 l/m 0 min 0 min 0,0 UV-I 0 W/m 0,0 km/h (0 Bft)
07.03.2014 21:08 9,2 C 6,1 C 75 % 1027,0 hPa 0,0 l/m 0 min 0 min 0,0 UV-I 0 W/m 0,0 km/h (0 Bft)
07.03.2014 21:10 9,1 C 6,1 C 75 % 1027,0 hPa 0,0 l/m 0 min 0 min 0,0 UV-I 0 W/m 0,0 km/h (0 Bft)
07.03.2014 21:12 8,9 C 6,1 C 75 % 1026,9 hPa 0,0 l/m 0 min 0 min 0,0 UV-I 0 W/m 0,0 km/h (0 Bft)
07.03.2014 21:14 8,7 C 5,6 C 76 % 1026,8 hPa 0,0 l/m 0 min 0 min 0,0 UV-I 0 W/m 0,0 km/h (0 Bft)
07.03.2014 21:16 8,7 C 5,6 C 76 % 1026,9 hPa 0,0 l/m 0 min 0 min 0,0 UV-I 0 W/m 0,0 km/h (0 Bft)
07.03.2014 21:18 8,6 C 5,6 C 77 % 1026,9 hPa 0,0 l/m 0 min 0 min 0,0 UV-I 0 W/m 0,0 km/h (0 Bft)
07.03.2014 21:20 8,4 C 5,6 C 78 % 1027,0 hPa 0,0 l/m 0 min 0 min 0,0 UV-I 0 W/m 0,0 km/h (0 Bft)
07.03.2014 21:22 8,3 C 5,6 C 78 % 1027,1 hPa 0,0 l/m 0 min 0 min 0,0 UV-I 0 W/m 0,0 km/h (0 Bft)
07.03.2014 21:24 8,2 C 5,6 C 78 % 1027,1 hPa 0,0 l/m 0 min 0 min 0,0 UV-I 0 W/m 0,0 km/h (0 Bft)
07.03.2014 21:26 8,1 C 5,0 C 79 % 1027,2 hPa 0,0 l/m 0 min 0 min 0,0 UV-I 0 W/m 0,0 km/h (0 Bft)
07.03.2014 21:28 8,1 C 5,0 C 79 % 1027,3 hPa 0,0 l/m 0 min 0 min 0,0 UV-I 0 W/m 0,0 km/h (0 Bft)
07.03.2014 21:30 8,1 C 5,0 C 80 % 1027,4 hPa 0,0 l/m 0 min 0 min 0,0 UV-I 0 W/m 0,0 km/h (0 Bft)
07.03.2014 21:32 7,9 C 5,0 C 79 % 1027,4 hPa 0,0 l/m 0 min 0 min 0,0 UV-I 0 W/m 0,0 km/h (0 Bft)
07.03.2014 21:34 7,9 C 5,0 C 80 % 1027,7 hPa 0,0 l/m 0 min 0 min 0,0 UV-I 0 W/m 0,0 km/h (0 Bft)
07.03.2014 21:36 7,8 C 5,0 C 80 % 1027,6 hPa 0,0 l/m 0 min 0 min 0,0 UV-I 0 W/m 0,0 km/h (0 Bft)
07.03.2014 21:38 7,7 C 5,0 C 80 % 1027,6 hPa 0,0 l/m 0 min 0 min 0,0 UV-I 0 W/m 0,0 km/h (0 Bft)
07.03.2014 21:40 7,7 C 5,0 C 80 % 1027,7 hPa 0,0 l/m 0 min 0 min 0,0 UV-I 0 W/m 0,0 km/h (0 Bft)
07.03.2014 21:42 7,6 C 5,0 C 81 % 1027,9 hPa 0,0 l/m 0 min 0 min 0,0 UV-I 0 W/m 0,0 km/h (0 Bft)
07.03.2014 21:44 7,5 C 5,0 C 81 % 1028,0 hPa 0,0 l/m 0 min 0 min 0,0 UV-I 0 W/m 0,0 km/h (0 Bft)
07.03.2014 21:46 7,5 C 5,0 C 81 % 1028,0 hPa 0,0 l/m 0 min 0 min 0,0 UV-I 0 W/m 0,0 km/h (0 Bft)
07.03.2014 21:48 7,6 C 5,0 C 81 % 1028,0 hPa 0,0 l/m 0 min 0 min 0,0 UV-I 0 W/m 0,0 km/h (0 Bft)
07.03.2014 21:50 7,7 C 5,0 C 81 % 1028,1 hPa 0,0 l/m 0 min 0 min 0,0 UV-I 0 W/m 0,0 km/h (0 Bft)
07.03.2014 21:52 7,7 C 5,6 C 81 % 1028,0 hPa 0,0 l/m 0 min 0 min 0,0 UV-I 0 W/m 0,0 km/h (0 Bft)
07.03.2014 21:54 7,7 C 5,6 C 81 % 1028,0 hPa 0,0 l/m 0 min 0 min 0,0 UV-I 0 W/m 0,0 km/h (0 Bft)
07.03.2014 21:56 7,7 C 5,6 C 81 % 1028,1 hPa 0,0 l/m 0 min 0 min 0,0 UV-I 0 W/m 0,0 km/h (0 Bft)
07.03.2014 21:58 7,8 C 6,1 C 81 % 1028,1 hPa 0,0 l/m 0 min 0 min 0,0 UV-I 0 W/m 0,0 km/h (0 Bft)
07.03.2014 22:00 7,8 C 6,1 C 81 % 1028,1 hPa 0,0 l/m 0 min 0 min 0,0 UV-I 0 W/m 0,0 km/h (0 Bft)
07.03.2014 22:02 7,9 C 6,1 C 81 % 1028,1 hPa 0,0 l/m 0 min 0 min 0,0 UV-I 0 W/m 0,0 km/h (0 Bft)
07.03.2014 22:04 8,0 C 6,1 C 81 % 1028,2 hPa 0,0 l/m 0 min 0 min 0,0 UV-I 0 W/m 0,0 km/h (0 Bft)
07.03.2014 22:06 8,1 C 6,1 C 80 % 1028,3 hPa 0,0 l/m 0 min 0 min 0,0 UV-I 0 W/m 0,0 km/h (0 Bft)
07.03.2014 22:08 8,2 C 6,1 C 80 % 1028,3 hPa 0,0 l/m 0 min 0 min 0,0 UV-I 0 W/m 0,0 km/h (0 Bft)
07.03.2014 22:10 8,2 C 6,1 C 80 % 1028,3 hPa 0,0 l/m 0 min 0 min 0,0 UV-I 0 W/m 0,0 km/h (0 Bft)
07.03.2014 22:12 8,2 C 6,1 C 80 % 1028,4 hPa 0,0 l/m 0 min 0 min 0,0 UV-I 0 W/m 0,0 km/h (0 Bft)
07.03.2014 22:14 8,2 C 6,1 C 80 % 1028,3 hPa 0,0 l/m 0 min 0 min 0,0 UV-I 0 W/m 0,0 km/h (0 Bft)
07.03.2014 22:16 8,2 C 6,1 C 80 % 1028,3 hPa 0,0 l/m 0 min 0 min 0,0 UV-I 0 W/m 0,0 km/h (0 Bft)
07.03.2014 22:18 8,3 C 6,1 C 80 % 1028,3 hPa 0,0 l/m 0 min 0 min 0,0 UV-I 0 W/m 0,0 km/h (0 Bft)
07.03.2014 22:20 8,3 C 6,1 C 80 % 1028,4 hPa 0,0 l/m 0 min 0 min 0,0 UV-I 0 W/m 0,0 km/h (0 Bft)
07.03.2014 22:22 8,4 C 6,1 C 80 % 1028,4 hPa 0,0 l/m 0 min 0 min 0,0 UV-I 0 W/m 0,0 km/h (0 Bft)
07.03.2014 22:24 8,4 C 6,7 C 80 % 1028,5 hPa 0,0 l/m 0 min 0 min 0,0 UV-I 0 W/m 0,0 km/h (0 Bft)
07.03.2014 22:26 8,5 C 6,7 C 80 % 1028,5 hPa 0,0 l/m 0 min 0 min 0,0 UV-I 0 W/m 0,0 km/h (0 Bft)
07.03.2014 22:28 8,5 C 6,7 C 80 % 1028,5 hPa 0,0 l/m 0 min 0 min 0,0 UV-I 0 W/m 0,0 km/h (0 Bft)
07.03.2014 22:30 8,5 C 6,7 C 80 % 1028,4 hPa 0,0 l/m 0 min 0 min 0,0 UV-I 0 W/m 0,0 km/h (0 Bft)
07.03.2014 22:32 8,6 C 6,7 C 80 % 1028,4 hPa 0,0 l/m 0 min 0 min 0,0 UV-I 0 W/m 0,0 km/h (0 Bft)
07.03.2014 22:34 8,6 C 6,7 C 81 % 1028,4 hPa 0,0 l/m 0 min 0 min 0,0 UV-I 0 W/m 0,0 km/h (0 Bft)
07.03.2014 22:36 8,6 C 6,7 C 81 % 1028,5 hPa 0,0 l/m 0 min 0 min 0,0 UV-I 0 W/m 0,0 km/h (0 Bft)
07.03.2014 22:38 8,7 C 6,7 C 80 % 1028,6 hPa 0,0 l/m 0 min 0 min 0,0 UV-I 0 W/m 0,0 km/h (0 Bft)
07.03.2014 22:40 8,7 C 6,7 C 81 % 1028,6 hPa 0,0 l/m 0 min 0 min 0,0 UV-I 0 W/m 0,0 km/h (0 Bft)
07.03.2014 22:42 8,7 C 6,7 C 81 % 1028,5 hPa 0,0 l/m 0 min 0 min 0,0 UV-I 0 W/m 0,0 km/h (0 Bft)
07.03.2014 22:44 8,7 C 6,7 C 80 % 1028,6 hPa 0,0 l/m 0 min 0 min 0,0 UV-I 0 W/m 0,0 km/h (0 Bft)
07.03.2014 22:46 8,7 C 6,7 C 80 % 1028,6 hPa 0,0 l/m 0 min 0 min 0,0 UV-I 0 W/m 0,0 km/h (0 Bft)
07.03.2014 22:48 8,8 C 6,7 C 81 % 1028,6 hPa 0,0 l/m 0 min 0 min 0,0 UV-I 0 W/m 0,0 km/h (0 Bft)
07.03.2014 22:50 8,8 C 6,7 C 81 % 1028,5 hPa 0,0 l/m 0 min 0 min 0,0 UV-I 0 W/m 0,0 km/h (0 Bft)
07.03.2014 22:52 8,8 C 6,7 C 81 % 1028,5 hPa 0,0 l/m 0 min 0 min 0,0 UV-I 0 W/m 0,0 km/h (0 Bft)
07.03.2014 22:54 8,8 C 6,7 C 81 % 1028,6 hPa 0,0 l/m 0 min 0 min 0,0 UV-I 0 W/m 0,0 km/h (0 Bft)
07.03.2014 22:56 8,9 C 6,7 C 81 % 1028,6 hPa 0,0 l/m 0 min 0 min 0,0 UV-I 0 W/m 0,0 km/h (0 Bft)
07.03.2014 22:58 8,9 C 6,7 C 81 % 1028,6 hPa 0,0 l/m 0 min 0 min 0,0 UV-I 0 W/m 0,0 km/h (0 Bft)
07.03.2014 23:00 8,9 C 6,7 C 80 % 1028,5 hPa 0,0 l/m 0 min 0 min 0,0 UV-I 0 W/m 0,0 km/h (0 Bft)
07.03.2014 23:02 8,9 C 6,7 C 80 % 1028,6 hPa 0,0 l/m 0 min 0 min 0,0 UV-I 0 W/m 0,0 km/h (0 Bft)
07.03.2014 23:04 8,9 C 6,7 C 80 % 1028,5 hPa 0,0 l/m 0 min 0 min 0,0 UV-I 0 W/m 0,0 km/h (0 Bft)
07.03.2014 23:06 9,0 C 6,7 C 81 % 1028,6 hPa 0,0 l/m 0 min 0 min 0,0 UV-I 0 W/m 0,0 km/h (0 Bft)
07.03.2014 23:08 9,0 C 6,7 C 81 % 1028,5 hPa 0,0 l/m 0 min 0 min 0,0 UV-I 0 W/m 0,0 km/h (0 Bft)
07.03.2014 23:10 9,0 C 6,7 C 81 % 1028,5 hPa 0,0 l/m 0 min 0 min 0,0 UV-I 0 W/m 0,0 km/h (0 Bft)
07.03.2014 23:12 9,1 C 6,7 C 81 % 1028,5 hPa 0,0 l/m 0 min 0 min 0,0 UV-I 0 W/m 0,0 km/h (0 Bft)
07.03.2014 23:14 9,1 C 6,7 C 81 % 1028,5 hPa 0,0 l/m 0 min 0 min 0,0 UV-I 0 W/m 0,0 km/h (0 Bft)
07.03.2014 23:16 9,1 C 7,2 C 81 % 1028,6 hPa 0,0 l/m 0 min 0 min 0,0 UV-I 0 W/m 0,0 km/h (0 Bft)
07.03.2014 23:18 9,2 C 7,2 C 81 % 1028,6 hPa 0,0 l/m 0 min 0 min 0,0 UV-I 0 W/m 0,0 km/h (0 Bft)
07.03.2014 23:20 9,2 C 7,2 C 81 % 1028,5 hPa 0,0 l/m 0 min 0 min 0,0 UV-I 0 W/m 0,0 km/h (0 Bft)
07.03.2014 23:22 9,2 C 6,7 C 81 % 1028,5 hPa 0,0 l/m 0 min 0 min 0,0 UV-I 0 W/m 0,0 km/h (0 Bft)
07.03.2014 23:24 9,2 C 6,7 C 81 % 1028,6 hPa 0,0 l/m 0 min 0 min 0,0 UV-I 0 W/m 0,0 km/h (0 Bft)
07.03.2014 23:26 9,1 C 6,7 C 81 % 1028,6 hPa 0,0 l/m 0 min 0 min 0,0 UV-I 0 W/m 0,0 km/h (0 Bft)
07.03.2014 23:28 9,1 C 6,7 C 82 % 1028,7 hPa 0,0 l/m 0 min 0 min 0,0 UV-I 0 W/m 0,0 km/h (0 Bft)
07.03.2014 23:30 9,1 C 6,7 C 82 % 1028,7 hPa 0,0 l/m 0 min 0 min 0,0 UV-I 0 W/m 0,0 km/h (0 Bft)
07.03.2014 23:32 9,1 C 6,7 C 82 % 1028,7 hPa 0,0 l/m 0 min 0 min 0,0 UV-I 0 W/m 0,0 km/h (0 Bft)
07.03.2014 23:34 9,1 C 7,2 C 82 % 1028,8 hPa 0,0 l/m 0 min 0 min 0,0 UV-I 0 W/m 0,0 km/h (0 Bft)
07.03.2014 23:36 9,2 C 7,2 C 82 % 1029,0 hPa 0,0 l/m 0 min 0 min 0,0 UV-I 0 W/m 0,0 km/h (0 Bft)
07.03.2014 23:38 9,2 C 7,2 C 82 % 1029,0 hPa 0,0 l/m 0 min 0 min 0,0 UV-I 0 W/m 0,0 km/h (0 Bft)
07.03.2014 23:40 9,2 C 7,2 C 82 % 1029,1 hPa 0,0 l/m 0 min 0 min 0,0 UV-I 0 W/m 0,0 km/h (0 Bft)
07.03.2014 23:42 9,2 C 7,2 C 82 % 1029,1 hPa 0,0 l/m 0 min 0 min 0,0 UV-I 0 W/m 0,0 km/h (0 Bft)
07.03.2014 23:44 9,2 C 7,2 C 82 % 1029,1 hPa 0,0 l/m 0 min 0 min 0,0 UV-I 0 W/m 0,0 km/h (0 Bft)
07.03.2014 23:46 9,2 C 7,2 C 82 % 1029,0 hPa 0,0 l/m 0 min 0 min 0,0 UV-I 0 W/m 0,0 km/h (0 Bft)
07.03.2014 23:48 9,1 C 7,2 C 82 % 1029,0 hPa 0,0 l/m 0 min 0 min 0,0 UV-I 0 W/m 0,0 km/h (0 Bft)
07.03.2014 23:50 9,1 C 7,2 C 82 % 1029,0 hPa 0,0 l/m 0 min 0 min 0,0 UV-I 0 W/m 0,0 km/h (0 Bft)
07.03.2014 23:52 9,1 C 7,2 C 82 % 1029,0 hPa 0,0 l/m 0 min 0 min 0,0 UV-I 0 W/m 0,0 km/h (0 Bft)
07.03.2014 23:54 9,1 C 7,2 C 82 % 1029,1 hPa 0,0 l/m 0 min 0 min 0,0 UV-I 0 W/m 0,0 km/h (0 Bft)
07.03.2014 23:56 9,1 C 7,2 C 83 % 1029,1 hPa 0,0 l/m 0 min 0 min 0,0 UV-I 0 W/m 0,0 km/h (0 Bft)
07.03.2014 23:58 9,0 C 7,2 C 83 % 1029,2 hPa 0,0 l/m 0 min 0 min 0,0 UV-I 0 W/m 0,0 km/h (0 Bft)
_ Min-Zeit 07:14 05:24 13:32 17:00 - - - - - 00:00
Minimum _ 2,1 C 0,6 C 55 % 1024,0 hPa - - - - - 0,0 km/h (0 Bft)
_ Max-Zeit 13:42 13:38 06:30 23:58 00:00 07:24 00:00 12:48 12:48 12:30
Maximum _ 14,4 C 13,3 C 92 % 1029,2 hPa 0,0 l/m 2 min 0 min 1,3 UV-I 531 W/m 25,7 km/h
S-SW (4 Bft)
Durchschnitt _ 8,0 C 6,2 C 77 % 1025,7 hPa #0,0 l/m #7:02 h #0 min. 0,9 UV-I 232 W/m 4,6 km/h (1 Bft)
© 2014 W. Hausmann